GFSCGP_925_rhum_000.txt.gz
RH
27 29 27 23 24 23 23 26 33 30 27 36 38 42 33 28 28 26 23 25 33 33 32 30 27 24 24 26 29 26 23 23 21 22 22 23 23 24 25 25 25 26 26 28
29 26 21 25 25 23 24 30 30 33 32 37 40 37 25 28 27 32 35 38 33 33 32 32 30 28 27 25 24 22 21 21 21 22 23 26 26 26 26 25 26 27 27 27
30 21 24 24 29 32 30 27 30 35 38 36 39 31 33 24 27 29 31 29 31 32 31 30 28 25 24 22 21 22 22 23 26 28 28 28 30 31 31 31 32 30 31 34
25 21 25 31 28 30 37 25 31 39 46 46 39 41 37 37 25 30 28 28 26 28 32 32 30 26 24 24 24 25 29 32 35 36 36 38 40 41 34 35 36 35 34 35
25 23 30 36 30 30 38 40 42 40 48 46 48 46 37 36 30 27 29 28 29 30 30 27 27 27 29 30 33 38 37 37 37 35 36 36 33 32 33 32 34 29 29 29
40 28 27 28 29 35 38 45 44 53 54 63 50 48 45 41 35 33 30 29 31 29 33 32 34 38 41 38 36 34 34 35 36 38 38 37 41 41 38 34 34 34 35 34
50 42 41 33 40 40 49 54 64 63 74 70 51 50 42 34 32 30 30 29 34 41 44 40 48 48 43 40 39 39 41 44 46 47 42 46 45 46 38 35 40 40 39 42
68 52 45 38 37 42 47 56 76 58 86 80 58 52 43 33 38 32 36 49 55 57 58 60 54 48 45 44 43 46 48 50 46 48 48 52 54 50 41 36 40 43 45 52
79 56 46 42 44 40 45 66 53 78 96 90 72 55 41 44 47 44 52 52 52 52 54 54 50 50 49 47 46 45 48 50 50 55 53 59 56 48 42 38 41 47 51 56
56 68 49 48 40 42 47 47 66 85 89 88 74 70 63 55 53 56 53 51 54 52 53 54 51 49 50 49 53 51 51 56 58 56 57 59 53 47 47 47 48 56 59 61
49 60 49 46 52 55 59 68 66 68 84 93 96 76 55 54 50 57 50 57 59 58 53 56 54 53 54 53 54 56 53 57 60 56 62 56 54 55 49 54 56 59 64 51
56 70 76 50 45 52 53 56 62 83 71 90 93 79 44 44 51 52 51 56 59 58 58 59 58 60 58 54 57 62 57 62 62 63 55 59 63 53 54 59 62 61 51 46
49 71 76 47 50 51 58 59 62 75 82 81 94 73 48 49 52 49 55 61 64 65 64 64 62 63 60 57 61 66 64 66 64 58 68 70 62 45 58 60 63 68 68 56
57 68 61 72 54 58 72 69 67 72 90 78 80 64 53 52 57 64 68 68 66 67 68 69 72 67 60 61 71 71 69 66 65 72 79 72 62 59 68 82 80 80 77 81
64 74 71 70 68 71 73 78 78 87 80 88 68 76 64 62 59 67 66 69 70 67 69 74 78 70 65 72 74 71 68 66 73 80 84 86 83 84 85 88 90 82 83 93
74 80 82 86 83 86 93 82 84 84 84 87 82 86 61 54 66 73 74 74 77 77 79 82 74 71 78 67 72 71 67 71 84 89 92 92 89 96 98 90 76 71 70 76
74 91 98 86 89 90 72 57 75 68 68 68 68 54 53 68 74 72 70 84 85 88 80 71 64 63 64 73 69 65 70 77 90 84 63 68 65 59 55 57 59 53 45 45
98 95 96 98 88 96 56 48 49 61 58 56 62 64 67 72 75 73 81 85 85 80 76 69 63 65 72 66 68 67 62 72 68 64 65 67 65 49 43 44 46 44 43 43
86 98 97 98 94 79 64 53 46 57 62 50 60 68 70 67 76 71 86 85 86 84 75 72 71 71 68 68 62 53 56 58 62 72 74 63 50 50 51 53 49 47 49 52
92 91 94 99 99 96 64 48 47 60 86 64 64 65 62 75 92 78 85 85 80 65 68 73 69 64 61 71 72 57 64 67 59 69 58 50 51 52 57 54 53 54 58 67
99 98 97 93 98 89 66 58 52 85 74 57 61 71 77 85 94 92 85 72 53 63 68 65 61 64 70 73 59 56 53 51 62 58 50 47 48 56 60 56 58 61 63 64
67 79 94 97 98 94 57 61 70 67 66 67 71 76 92 92 92 85 76 66 58 65 66 56 65 66 71 72 56 57 78 59 57 54 51 45 49 58 55 59 57 61 68 69
84 72 77 84 84 62 51 62 57 61 75 79 84 90 93 92 85 76 75 66 58 68 67 61 67 77 77 80 85 95 61 69 55 55 52 52 53 57 56 62 59 66 75 81
80 76 89 76 69 77 70 62 71 86 92 92 93 94 89 82 86 78 75 63 58 65 67 64 74 85 75 55 65 71 59 52 55 58 58 59 60 61 60 67 63 71 79 81
89 80 88 90 76 77 74 92 93 91 91 90 85 81 74 75 79 77 71 73 74 73 70 68 79 83 66 56 54 49 54 53 56 59 62 68 72 75 77 81 69 77 76 82
88 87 93 83 73 93 86 90 90 86 84 80 76 76 68 70 69 71 72 72 76 78 74 75 83 81 73 72 50 52 53 54 58 62 67 76 70 69 83 80 80 77 74 75

GFSCGP_925_rhum_006.txt.gz
RH
16 13 17 19 18 17 16 16 16 15 20 26 24 17 16 16 16 17 17 15 18 22 23 23 26 28 35 48 45 39 41 43 38 32 32 29 31 31 33 36 44 46 46 45
13 20 18 20 20 18 18 18 18 20 23 27 21 19 17 18 21 20 18 18 19 19 19 24 27 32 34 38 40 37 34 36 35 32 36 40 42 38 41 37 40 38 39 38
16 19 19 20 23 24 21 21 27 27 24 24 22 22 19 19 19 19 19 19 19 19 20 22 27 32 35 38 37 36 38 41 43 39 36 35 35 34 34 36 35 38 40 40
20 22 24 23 28 28 25 26 31 30 28 23 25 22 25 19 20 20 21 22 22 21 21 23 25 32 36 43 42 41 42 41 43 44 41 44 39 39 42 42 40 41 36 37
25 25 26 28 29 30 32 34 33 32 28 29 26 22 27 22 23 23 22 24 25 25 27 30 34 36 40 44 46 46 44 44 45 44 47 42 45 45 43 42 39 32 31 36
26 24 26 29 27 29 31 33 33 33 33 39 34 29 30 28 28 25 26 29 31 31 28 34 36 37 39 45 48 46 42 44 48 48 47 53 55 52 45 40 37 34 36 36
27 30 28 30 28 30 26 29 35 47 45 40 34 31 36 30 28 29 31 32 34 36 35 32 33 34 40 44 46 44 44 41 46 50 48 48 47 46 44 42 40 42 40 41
33 37 35 33 36 36 35 36 47 49 46 38 32 31 33 30 29 30 30 32 32 33 34 33 33 35 40 45 48 48 44 42 42 46 43 41 49 52 48 47 49 48 50 54
39 37 33 34 32 33 35 43 39 55 78 62 33 34 32 29 29 28 30 32 33 32 31 32 33 36 42 47 48 53 50 42 43 48 52 56 59 55 55 53 53 52 58 60
42 43 35 33 33 34 33 36 42 40 70 44 24 26 26 36 33 32 30 32 32 31 30 31 32 35 42 46 52 53 53 50 53 56 57 59 58 55 57 56 57 61 65 70
35 39 36 37 39 39 40 42 42 38 48 49 51 28 31 30 30 31 32 30 32 34 33 33 35 38 41 49 50 52 55 57 57 56 57 55 58 57 57 60 63 67 68 63
43 46 36 33 40 39 38 40 38 44 47 52 60 45 29 30 30 32 31 31 33 36 34 33 37 42 47 51 52 53 56 56 61 56 55 57 59 58 59 64 69 72 73 73
42 46 34 35 42 39 43 40 43 48 55 61 72 45 27 29 27 28 34 35 36 36 34 34 39 46 50 50 51 60 63 61 58 56 54 54 62 63 67 72 74 83 88 89
48 45 41 28 28 34 36 34 38 43 66 52 50 40 31 28 30 31 34 40 37 37 37 42 50 50 50 54 57 60 59 60 57 58 56 57 63 79 86 91 81 74 70 68
47 48 48 40 37 36 42 41 37 42 46 60 48 39 34 33 35 37 40 41 41 42 50 51 50 53 51 47 50 56 58 53 62 61 57 62 62 60 57 55 52 50 47 41
50 55 64 58 47 41 49 41 39 43 43 45 45 45 34 34 40 44 44 44 46 55 55 57 59 53 40 42 54 59 48 52 66 58 59 57 57 54 49 47 43 39 38 41
61 69 74 84 61 63 78 51 39 38 42 41 50 38 40 44 48 48 48 51 63 66 64 64 57 37 42 50 61 47 46 54 61 57 55 57 58 49 44 40 36 39 42 44
94 80 91 96 91 83 45 34 35 40 38 33 35 41 46 47 45 41 58 69 83 78 57 47 42 39 45 52 50 47 47 51 53 55 54 59 52 46 40 39 40 42 42 44
63 83 97 96 71 52 44 39 42 44 44 39 47 51 52 48 44 50 75 83 74 65 55 48 43 42 45 52 48 50 49 49 50 52 57 58 50 47 39 40 42 44 46 48
70 78 86 88 94 82 44 39 40 42 56 52 65 79 79 58 83 86 71 76 67 50 46 41 36 41 50 55 52 55 52 50 48 54 63 54 51 46 41 44 46 49 48 49
93 95 92 85 94 67 42 44 44 81 78 68 78 82 82 86 87 83 76 57 41 40 39 37 34 36 44 51 53 58 49 45 45 52 55 55 51 43 44 46 48 51 52 60
62 82 94 93 96 94 43 45 83 63 70 82 78 73 74 72 75 58 42 36 34 36 36 33 34 36 41 47 53 54 42 40 48 53 55 55 49 46 46 48 50 53 55 64
63 55 55 66 64 41 41 52 53 67 78 72 76 66 69 64 48 38 35 32 33 36 34 34 39 43 42 43 53 49 40 46 57 54 54 53 49 49 50 52 57 58 57 78
51 49 68 70 54 47 52 50 61 71 78 76 73 57 51 48 39 35 32 32 36 34 35 41 42 41 44 48 60 58 58 63 64 55 51 51 50 52 56 59 59 55 65 80
53 51 60 70 60 56 52 68 78 78 82 78 54 48 41 34 34 31 31 31 32 35 40 43 42 43 42 45 67 68 75 66 54 49 50 53 58 62 64 60 58 64 73 76
52 54 83 93 69 69 77 76 75 84 70 48 44 38 33 32 33 31 30 32 34 38 45 44 46 50 50 52 58 71 65 71 64 60 57 62 72 72 72 60 60 69 77 73

GFSCGP_925_rhum_009.txt.gz
RH
11 12 14 15 14 12 10 11 11 11 14 16 16 12 13 14 13 14 13 13 12 12 18 25 24 25 30 38 36 34 34 41 33 30 30 27 28 30 32 34 40 42 41 40
10 16 14 15 15 15 14 14 14 14 16 18 16 14 14 15 16 14 15 16 18 20 19 22 26 27 30 36 38 36 34 33 30 30 34 39 40 35 36 35 36 36 40 40
15 16 16 17 17 18 17 18 22 21 17 15 17 17 16 16 16 16 16 16 16 18 20 23 26 32 34 35 34 34 36 38 39 35 34 34 33 32 32 35 37 38 41 36
17 18 19 18 21 21 21 20 23 22 20 20 16 20 19 16 18 19 20 19 19 19 19 20 25 30 37 39 39 38 38 37 39 44 38 41 39 39 41 40 39 40 36 32
22 21 22 23 24 22 26 25 24 23 21 20 18 16 24 16 20 20 22 22 22 22 24 26 28 32 36 41 44 40 38 39 42 42 45 45 46 46 44 42 40 38 33 36
21 19 22 24 22 22 23 25 25 26 23 30 23 21 23 21 23 22 24 25 26 25 26 27 30 31 36 41 42 41 38 37 43 47 47 47 51 53 43 40 40 36 40 37
22 24 22 23 24 24 21 24 35 41 38 37 25 21 30 24 22 23 26 26 28 29 29 27 28 29 35 37 40 40 36 36 37 41 45 42 41 44 44 43 42 44 40 41
25 36 26 24 28 29 26 28 44 42 38 30 23 22 27 23 24 24 24 26 26 28 28 28 29 31 32 36 37 43 43 40 36 40 44 46 48 49 48 48 50 49 48 49
29 32 25 27 25 25 28 33 28 44 56 52 22 21 24 24 25 24 25 25 26 26 25 26 27 28 32 36 37 43 45 43 42 45 48 51 51 51 52 53 52 50 53 53
28 36 26 26 26 26 29 26 39 34 60 38 19 18 26 31 26 26 23 24 24 24 24 26 28 30 33 34 37 41 45 43 44 47 49 50 51 54 52 51 52 53 54 56
24 28 29 26 29 28 30 33 34 27 36 44 39 26 24 22 25 26 26 24 25 25 27 27 29 32 36 36 40 42 45 49 48 48 49 51 51 51 50 49 50 62 69 65
32 33 34 23 29 30 29 30 30 42 37 39 50 42 23 23 23 24 24 24 26 28 28 28 30 34 38 41 42 43 51 52 49 48 46 45 44 46 46 50 64 65 65 72
32 37 35 27 35 31 31 30 30 35 45 49 66 43 23 23 26 22 24 27 29 33 34 34 36 37 40 42 46 48 48 48 50 48 44 41 43 47 53 58 58 61 60 56
44 32 34 36 26 22 27 25 23 30 51 48 42 33 24 23 25 26 27 29 35 35 36 39 41 41 43 49 48 42 42 47 47 46 42 43 48 50 52 55 53 46 43 41
36 42 37 33 26 24 27 28 27 27 28 42 40 34 28 28 31 32 32 32 34 36 41 46 44 45 47 41 34 38 44 45 43 46 43 45 47 47 48 48 44 40 38 36
38 51 55 48 30 28 34 28 26 26 29 30 30 33 26 28 29 33 40 41 40 46 52 53 44 40 36 32 35 37 43 39 42 45 43 44 46 55 51 43 39 33 34 36
50 56 58 70 53 57 77 44 28 28 28 35 44 33 28 33 41 47 50 45 54 59 62 50 42 37 34 32 33 37 38 37 39 40 41 40 51 58 47 42 34 33 35 37
72 64 84 93 89 88 39 26 27 30 30 26 27 29 35 45 44 44 50 55 59 57 55 42 39 35 30 28 30 34 41 36 37 38 39 45 51 54 45 38 34 34 35 38
47 69 90 92 64 47 38 35 36 40 42 30 39 45 49 48 46 49 56 54 58 53 43 37 32 27 26 26 29 34 38 38 38 43 39 42 51 56 44 36 36 37 38 39
57 68 76 89 90 80 45 33 33 36 55 47 52 58 71 56 71 52 54 53 51 40 30 29 28 28 26 25 27 30 30 33 43 43 37 44 45 48 45 38 38 38 38 40
91 90 92 80 92 62 35 37 37 64 70 58 62 70 65 66 58 58 53 41 32 27 26 26 25 25 25 28 29 29 27 30 40 43 41 49 54 49 42 38 38 38 40 50
68 88 94 82 95 87 36 39 72 51 49 62 69 72 67 56 51 44 34 29 27 25 24 23 23 25 27 27 28 29 27 30 42 45 50 58 60 48 40 40 38 41 44 56
51 49 56 59 54 33 41 46 49 49 62 67 80 77 70 45 39 34 30 26 25 24 21 21 23 27 27 29 29 29 43 56 67 73 71 78 59 47 39 39 39 44 49 59
40 32 56 60 44 39 45 46 56 64 71 73 76 60 42 40 33 29 27 26 23 21 22 23 26 28 30 32 35 37 59 71 64 69 66 57 46 45 44 42 43 45 55 69
46 41 50 57 44 41 41 61 63 63 66 68 50 39 39 32 30 28 26 22 23 25 25 29 30 30 33 37 42 46 63 61 69 70 55 50 47 46 48 48 50 53 66 75
43 46 66 73 51 63 64 64 60 59 62 45 40 37 32 30 28 25 24 26 27 28 31 30 30 34 41 48 53 62 68 75 70 66 57 57 64 57 60 53 54 66 76 76

GFSCGP_925_rhum_012.txt.gz
RH
11 13 17 15 13 11 10 10 10 12 13 13 12 12 12 12 12 14 13 13 14 22 25 26 26 26 31 34 42 46 44 40 35 34 33 34 37 34 35 36 38 37 38 42
10 15 14 12 12 12 11 12 12 12 13 13 14 12 13 14 15 14 15 17 22 23 24 27 33 40 40 38 37 35 36 35 34 34 35 36 36 36 35 38 39 39 41 41
19 16 13 14 15 16 15 15 22 20 16 14 14 16 16 16 16 16 17 18 20 23 27 29 34 37 36 36 35 37 38 41 39 35 37 39 37 37 38 40 42 42 45 46
17 15 16 16 18 20 20 21 21 19 19 20 14 21 18 18 19 20 20 22 22 21 22 26 33 39 41 40 38 38 37 37 40 39 42 45 42 44 46 49 50 49 41 41
20 19 20 21 22 19 24 22 21 20 21 19 17 21 22 18 21 23 24 24 25 27 28 30 32 36 41 43 42 39 38 39 42 45 46 48 51 53 50 46 45 42 44 42
19 16 20 22 19 19 21 23 21 22 24 42 20 21 36 24 24 24 24 26 27 27 28 28 30 34 40 42 42 41 38 36 38 43 46 44 43 45 48 48 48 51 48 47
20 22 21 19 24 22 19 24 46 59 53 52 24 22 32 24 21 23 26 28 30 31 32 30 29 30 34 37 38 38 41 41 38 38 42 46 50 51 52 52 55 54 53 54
25 37 23 20 25 26 24 26 60 54 61 44 20 22 31 24 24 23 24 25 27 29 30 29 28 29 30 32 34 38 42 43 41 42 46 51 52 52 54 56 54 54 55 56
28 31 22 22 22 22 29 34 23 43 56 60 24 28 26 24 25 23 24 24 24 24 24 25 26 28 30 32 34 38 40 44 46 50 48 50 51 54 56 52 52 52 58 63
23 35 22 20 22 24 25 22 39 49 62 46 24 22 40 30 28 28 23 24 24 24 25 29 28 30 33 37 38 41 44 49 49 50 49 50 52 52 52 50 50 62 65 61
24 26 28 23 26 27 28 29 30 27 42 52 50 31 20 23 24 25 25 23 28 28 28 30 32 35 38 41 43 44 49 52 50 48 48 46 46 45 47 48 58 62 62 62
27 30 48 23 24 22 24 27 28 62 44 57 58 42 22 22 23 28 26 25 28 33 34 34 37 41 40 42 45 47 49 48 47 48 46 44 42 43 47 52 55 55 58 60
33 39 51 33 34 27 24 24 25 34 56 56 72 48 22 26 33 28 27 28 33 34 32 36 40 41 41 42 46 48 46 41 44 44 42 42 42 47 48 47 53 55 53 48
45 29 32 43 28 23 25 22 20 25 67 57 52 36 28 28 32 30 29 31 32 35 38 41 43 43 43 43 42 42 36 40 45 42 40 42 44 46 46 49 50 47 44 40
34 41 38 33 26 25 25 26 25 27 28 43 38 29 26 30 30 39 40 38 38 40 42 45 49 45 40 38 35 34 35 38 47 50 47 42 42 44 49 52 50 44 38 36
36 60 59 52 27 31 36 31 29 27 24 25 29 32 25 30 38 43 45 44 47 48 50 49 45 40 36 36 35 32 31 35 50 56 57 49 56 50 54 59 54 42 35 35
50 65 70 74 56 63 83 50 28 28 26 29 45 34 35 43 45 44 45 48 54 51 49 49 40 37 34 29 26 26 30 34 48 50 44 55 70 72 62 57 47 41 37 36
69 69 89 91 87 80 35 27 27 30 27 26 26 34 43 47 45 42 51 54 53 50 49 43 35 30 28 27 26 26 27 28 29 33 46 72 71 64 50 53 47 40 38 38
43 77 91 99 68 49 40 34 39 44 46 31 42 48 50 48 45 52 51 47 49 46 40 29 25 26 26 25 26 28 28 27 28 28 55 68 64 52 57 50 44 40 39 40
53 72 84 97 89 77 46 32 34 36 60 51 54 58 62 51 76 58 49 45 38 29 25 23 23 23 22 25 26 27 27 27 29 52 59 69 73 68 61 66 43 38 40 48
91 84 92 88 82 71 36 34 35 61 74 58 61 62 65 71 69 50 42 34 27 24 23 23 21 22 24 26 26 28 28 29 42 61 66 81 91 92 69 48 41 40 45 48
84 93 93 82 94 85 34 36 63 60 57 58 56 69 81 80 60 38 32 28 25 23 21 19 20 22 25 26 27 30 32 39 57 69 66 69 71 73 56 46 42 42 45 57
55 61 69 67 71 44 37 46 52 63 69 77 71 76 64 69 40 34 31 27 25 21 20 22 23 26 27 28 30 35 41 48 58 60 67 69 68 58 49 44 41 44 52 64
33 28 70 63 44 38 40 41 56 60 62 63 61 55 56 40 37 32 30 27 23 22 23 26 28 27 29 30 38 44 50 61 61 61 64 62 52 48 46 47 46 52 60 72
52 40 46 54 41 40 49 58 62 62 65 60 53 40 36 33 32 30 27 25 26 26 28 30 29 31 36 38 46 54 58 67 68 67 66 61 64 62 57 54 55 58 68 71
46 45 65 73 50 58 63 64 61 60 67 60 39 37 32 30 28 24 28 28 28 30 30 30 33 38 42 50 55 57 62 74 78 79 75 71 63 65 63 62 63 66 70 79

GFSCGP_925_rhum_015.txt.gz
RH
17 24 25 18 14 13 14 15 22 18 14 14 14 16 19 20 19 23 29 34 36 40 46 47 44 45 46 48 53 47 42 35 40 39 37 35 36 36 42 38 40 39 39 39
18 24 15 14 14 15 14 20 26 19 15 14 15 17 22 22 25 26 32 36 39 42 44 45 44 39 42 40 40 39 37 36 36 37 39 38 37 39 37 39 44 50 48 46
26 17 13 15 24 24 24 29 27 24 20 17 18 23 25 24 24 24 28 32 35 41 45 47 48 41 39 39 39 38 37 35 38 38 37 35 38 40 46 48 48 44 44 43
21 16 19 19 25 24 33 28 26 24 26 31 20 38 28 27 30 30 33 38 39 40 44 46 48 44 41 40 39 38 39 39 38 37 40 45 51 53 49 46 48 46 46 44
22 26 29 29 25 22 30 23 26 25 31 30 28 38 30 29 36 35 37 37 40 43 44 49 47 44 44 42 40 39 40 38 38 43 47 50 45 44 52 50 48 49 48 45
22 22 24 25 22 20 22 29 32 31 37 60 37 37 50 42 35 36 37 38 40 41 42 40 40 42 42 42 41 41 40 42 42 44 46 47 51 53 52 52 53 53 50 52
26 27 23 21 29 25 27 42 70 71 77 73 47 40 50 38 30 34 41 44 43 42 42 42 43 44 43 42 40 41 43 43 43 47 51 52 53 53 56 55 54 51 52 54
42 46 29 26 28 30 34 38 75 64 82 68 27 45 46 34 32 33 36 39 40 39 38 37 32 32 37 38 39 40 41 48 48 49 52 53 53 54 55 55 51 51 64 65
45 38 26 24 24 26 34 42 25 60 61 79 46 41 34 31 31 31 30 32 36 38 38 36 38 38 42 44 44 44 47 50 51 51 49 50 51 53 53 49 55 65 62 54
28 40 24 22 23 26 29 24 55 66 63 54 42 51 61 42 48 38 30 35 36 40 44 47 47 42 41 44 48 47 49 51 50 51 48 46 46 45 48 56 60 58 55 50
38 43 33 24 32 35 38 40 39 40 64 74 78 50 33 44 45 42 39 40 47 48 46 50 48 43 43 43 46 50 50 49 48 48 48 47 44 48 47 48 53 54 52 48
31 46 57 38 26 23 25 34 41 75 57 79 82 60 30 44 39 40 38 44 44 44 48 50 46 45 45 45 44 42 43 44 47 45 45 44 44 44 45 48 46 49 52 53
43 44 73 53 43 34 24 28 34 61 70 58 74 63 32 33 40 35 35 44 44 47 54 55 53 51 44 40 38 37 38 40 36 42 47 46 51 56 59 48 49 51 48 45
50 38 50 66 38 31 30 31 27 53 85 72 72 51 36 49 48 52 52 50 52 55 55 57 57 51 46 40 36 36 34 32 34 47 47 52 58 62 59 52 53 50 50 41
47 60 51 45 37 34 34 37 36 36 40 59 51 48 42 57 55 54 52 50 55 57 56 56 56 48 39 39 36 28 26 29 40 42 46 50 58 59 61 68 69 88 48 38
53 79 55 53 50 51 51 48 43 38 36 35 37 41 48 51 51 54 57 60 59 57 56 56 53 44 40 32 28 27 30 29 29 31 36 57 62 67 73 77 96 66 42 38
68 74 84 86 70 80 73 48 40 35 34 33 46 47 57 60 59 69 68 62 61 60 58 57 50 45 31 29 30 28 28 27 28 29 49 68 71 75 82 86 78 50 41 38
71 83 96 90 78 63 54 35 38 44 42 42 55 62 61 60 68 68 61 60 60 58 56 51 46 31 26 28 26 26 27 27 27 46 55 65 69 74 81 89 86 45 44 38
65 89 94 96 91 60 49 40 45 50 55 62 69 67 64 56 58 65 55 50 49 50 43 32 25 24 25 26 26 26 27 28 35 59 64 70 76 83 88 91 60 70 48 49
78 81 87 98 92 81 59 43 40 41 80 64 70 77 74 65 89 80 52 46 46 29 27 24 22 22 25 26 26 26 28 32 56 65 66 67 73 77 80 81 69 44 48 58
97 91 92 92 90 80 62 41 38 67 69 74 72 77 76 82 82 71 56 36 29 28 23 22 22 25 26 26 26 28 36 46 54 60 61 65 70 78 74 76 52 48 52 64
86 95 94 86 86 94 49 44 58 66 66 73 73 80 86 81 80 74 37 35 30 26 23 24 27 29 28 28 34 42 48 55 60 60 63 65 65 63 57 49 45 52 56 62
73 81 90 77 80 58 47 53 58 66 76 77 73 80 74 72 76 41 38 35 30 26 26 29 30 30 30 36 42 52 56 58 63 64 64 63 58 58 54 52 52 56 61 68
46 55 78 72 59 52 43 68 68 74 79 77 72 73 63 64 41 40 38 34 31 30 32 31 31 34 38 41 50 55 57 60 64 70 70 67 68 64 60 57 57 59 66 70
62 52 54 69 54 52 72 76 76 74 70 64 59 58 42 37 38 33 38 34 33 33 33 35 38 41 44 56 60 62 55 59 72 71 76 75 72 65 68 65 65 73 74 76
63 60 78 81 63 67 83 77 68 73 73 63 56 41 36 31 35 32 34 33 37 39 41 43 47 49 57 63 63 67 63 67 71 71 75 72 74 78 74 76 79 78 69 73

GFSCGP_925_rhum_018.txt.gz
RH
22 25 23 18 17 16 15 21 24 19 15 14 19 23 25 32 43 47 55 59 57 56 52 57 60 64 75 76 75 74 73 66 59 41 39 40 44 40 45 47 48 47 46 45
24 23 17 17 22 24 22 25 25 20 16 15 24 29 33 34 38 47 52 54 56 55 53 57 53 49 51 54 50 40 40 41 40 40 42 42 44 49 51 49 47 46 44 42
27 19 15 24 27 29 34 31 26 24 21 19 27 30 36 34 37 39 44 50 52 56 58 57 56 49 43 40 37 36 36 37 37 39 36 37 40 46 50 53 49 46 45 44
21 22 24 27 27 26 36 28 26 25 29 25 22 44 30 40 44 43 46 54 56 58 58 53 52 46 42 42 41 40 38 37 38 38 38 39 44 49 51 49 48 48 48 48
27 29 31 29 25 24 31 25 26 26 33 34 31 43 37 40 46 48 51 53 57 58 55 59 50 43 41 40 39 39 40 41 42 42 44 48 47 47 52 51 50 50 51 48
25 23 24 25 25 22 22 29 40 39 45 60 40 46 47 46 43 43 45 49 52 56 57 54 47 45 43 41 40 40 43 43 44 49 48 47 48 54 54 54 54 52 50 52
31 30 26 25 31 29 31 49 70 68 75 68 48 54 50 39 37 44 50 50 48 49 54 57 50 48 46 46 47 47 49 52 51 52 52 54 54 55 55 54 56 58 51 60
45 48 31 26 28 30 34 44 73 63 71 63 42 55 50 44 41 42 43 45 46 47 49 52 50 50 50 49 47 50 51 51 50 50 52 52 52 52 53 52 51 53 60 60
46 39 27 24 24 29 34 42 36 61 67 76 57 44 35 36 39 38 37 40 46 52 57 56 52 51 49 46 48 49 51 52 51 51 50 49 48 48 47 50 51 56 61 55
32 39 26 23 28 29 25 28 53 67 58 56 50 53 58 50 48 39 43 50 54 55 57 56 51 50 54 55 53 50 50 49 50 49 48 48 46 46 48 51 54 59 56 53
39 40 37 34 33 35 38 42 45 48 68 73 78 55 37 51 49 49 53 55 55 57 60 60 54 47 45 42 38 38 40 43 47 48 46 46 46 44 48 54 53 53 56 58
37 51 59 38 27 25 27 37 47 73 49 82 81 61 41 48 47 49 52 51 56 58 58 58 56 51 46 42 38 37 36 36 40 40 47 49 48 50 49 51 55 59 60 56
39 48 71 57 49 38 31 30 52 61 70 57 70 56 41 45 53 46 55 55 61 62 62 59 56 51 45 42 38 38 29 29 33 42 48 46 47 54 57 63 64 62 58 65
49 53 51 65 47 37 30 32 45 55 79 68 71 48 42 58 61 60 62 65 67 64 60 60 58 51 42 40 37 28 31 32 32 30 30 36 48 66 66 61 57 71 75 69
50 59 49 43 46 38 38 37 38 42 49 62 52 58 53 64 65 62 63 64 62 60 59 58 58 53 45 38 33 31 28 27 28 27 37 49 56 52 59 65 76 78 74 70
64 72 52 48 56 66 48 52 49 45 38 40 42 71 58 59 64 70 68 64 63 60 58 57 55 49 47 38 29 27 27 27 27 33 45 55 57 59 65 78 82 88 94 51
68 76 71 65 75 73 68 50 43 38 43 40 49 62 65 70 73 75 70 64 62 58 56 57 53 49 35 29 26 26 27 27 30 48 60 60 56 60 74 83 91 98 93 61
74 91 92 73 66 52 50 40 40 47 57 66 69 68 65 71 73 69 62 61 60 59 55 51 40 30 29 27 26 26 27 30 43 59 55 56 57 66 74 85 94 80 69 70
66 86 97 71 84 50 46 46 46 44 53 68 72 72 67 74 69 64 56 53 51 47 38 32 24 26 26 26 26 28 31 38 50 53 60 61 65 69 73 82 90 85 82 59
79 77 77 100 65 52 43 47 44 46 77 72 74 79 74 69 89 81 62 52 40 32 27 24 24 27 28 27 30 35 41 47 55 62 63 63 69 79 79 81 68 64 57 60
95 94 90 99 90 78 56 47 44 67 60 78 78 81 80 80 76 69 66 37 32 28 24 25 28 30 29 32 37 41 47 54 60 60 62 65 63 65 64 65 64 54 63 68
84 94 98 96 96 77 55 50 58 60 75 80 80 81 81 80 78 73 48 35 31 26 28 31 31 31 33 38 42 49 52 56 58 60 65 64 62 61 54 51 52 60 62 66
60 67 81 76 77 54 56 52 52 74 79 80 82 84 81 75 73 58 42 37 32 32 32 32 34 36 38 42 50 55 56 57 61 64 69 69 69 65 63 56 58 64 68 71
57 65 85 73 57 60 57 63 71 74 80 81 80 82 74 71 60 43 41 38 36 34 36 38 42 46 49 52 60 63 64 62 65 68 68 73 74 68 68 64 66 70 73 75
62 62 61 76 60 69 75 75 81 82 79 72 67 64 64 51 40 40 40 39 39 40 44 45 50 55 57 60 65 67 66 67 71 71 69 70 74 77 73 71 78 79 73 78
68 59 78 73 57 58 72 83 78 79 75 66 63 48 38 36 40 36 41 43 45 49 48 50 57 59 68 71 64 74 71 73 83 81 74 73 71 83 82 83 84 75 72 82

GFSCGP_925_rhum_021.txt.gz
RH
23 25 23 20 18 16 16 22 22 20 16 21 30 42 46 55 65 74 71 68 68 69 67 74 86 88 82 78 76 70 68 80 47 47 44 45 49 47 46 46 45 45 45 44
25 24 18 27 28 25 24 24 23 21 22 28 38 45 49 54 64 68 66 65 66 68 66 70 74 71 73 70 64 51 54 57 45 42 46 48 49 52 49 49 48 46 44 43
26 19 21 25 30 32 35 29 27 24 24 29 34 44 45 42 51 56 62 63 60 64 69 73 70 62 53 43 40 39 38 38 39 41 39 42 47 54 52 50 48 48 49 49
25 30 27 28 28 30 33 29 26 25 26 42 28 59 37 46 55 58 64 70 67 69 70 63 57 48 41 39 37 36 37 38 38 38 38 38 39 45 57 54 52 53 52 50
29 29 30 29 26 26 32 28 27 27 35 37 33 52 45 50 59 60 63 66 67 65 59 62 54 44 40 41 42 42 43 42 42 43 44 46 52 55 58 56 54 53 52 60
29 25 25 26 26 24 24 35 45 51 49 60 41 48 56 57 55 56 54 58 58 62 62 58 51 49 52 51 49 49 48 47 49 52 52 51 52 56 55 54 53 53 58 58
34 32 29 27 30 29 35 47 68 69 74 69 48 55 54 44 45 50 56 57 58 60 66 68 60 57 53 51 53 50 48 52 54 53 53 53 53 53 51 51 48 50 48 47
48 47 31 27 28 32 36 44 74 57 72 63 48 62 54 46 49 48 49 55 55 58 58 63 60 58 54 54 52 51 51 51 51 51 50 50 49 47 46 45 47 48 49 54
44 38 29 25 25 31 34 45 40 70 71 76 64 47 45 49 52 50 52 52 59 63 65 65 62 57 54 52 52 51 51 52 52 51 51 50 50 48 48 49 50 51 58 61
38 38 28 25 28 29 30 34 53 68 57 56 55 58 65 52 53 50 55 64 65 64 64 65 61 58 54 48 43 41 43 44 45 48 47 46 50 53 55 54 53 56 63 59
39 35 35 34 35 37 39 42 51 56 70 71 76 66 43 52 52 56 65 64 67 69 67 62 56 54 47 41 39 40 40 39 44 47 51 53 49 45 48 50 58 65 60 58
40 53 61 38 34 32 31 39 46 68 51 83 80 60 40 54 54 56 58 61 68 68 63 59 54 49 46 42 40 40 30 29 34 44 47 34 32 38 58 56 60 60 66 66
38 51 68 54 48 36 36 38 60 62 70 60 73 60 47 54 54 54 65 70 69 68 65 63 59 53 48 45 42 33 33 37 39 30 28 27 29 35 50 54 50 52 56 61
48 57 49 60 45 41 32 34 51 53 77 65 67 44 46 63 65 67 71 71 71 67 63 62 60 53 46 47 41 32 30 28 27 26 27 31 41 44 47 50 53 54 63 74
50 54 49 52 52 41 37 36 46 52 53 58 50 57 45 66 70 70 71 72 68 64 56 57 58 54 51 44 33 29 27 27 27 27 32 41 49 51 53 50 55 78 87 96
66 69 47 56 61 65 46 42 50 49 45 57 48 66 61 64 70 73 71 69 66 60 55 53 52 52 44 34 28 27 26 26 29 32 41 50 54 54 51 56 76 83 95 87
67 74 60 50 74 64 50 58 54 44 42 43 63 58 69 73 74 77 76 69 65 58 54 52 55 47 36 29 27 26 26 28 31 41 53 56 60 58 56 64 84 94 99 90
77 89 85 68 66 44 36 44 43 44 50 61 68 72 68 71 71 72 68 67 65 59 56 52 40 33 31 28 26 27 29 31 35 54 59 64 62 62 70 80 82 85 68 82
69 86 96 71 71 45 37 49 54 53 52 69 71 71 68 77 69 68 65 60 60 58 45 34 26 28 28 28 29 31 33 37 51 58 63 60 62 69 72 85 82 72 80 82
76 73 72 98 57 44 35 50 46 43 69 73 73 79 81 79 93 84 67 59 56 38 29 25 26 29 30 30 34 37 42 49 53 58 57 60 68 65 67 68 74 68 59 68
94 96 83 100 80 68 50 49 43 59 52 79 75 77 83 84 78 67 68 60 37 27 26 27 30 32 34 37 40 44 48 51 53 56 58 64 64 63 61 57 60 60 67 69
91 97 97 97 94 63 52 52 59 59 60 74 81 80 78 71 78 80 58 42 30 29 31 33 33 35 38 42 44 49 53 56 58 60 64 68 68 69 60 54 54 64 66 66
72 64 78 72 71 51 56 53 54 65 73 81 82 83 78 83 81 77 48 40 34 34 34 36 38 43 45 48 52 58 60 64 65 66 70 72 73 70 67 61 63 68 69 72
66 64 81 68 50 61 57 54 60 74 72 80 81 82 78 75 76 54 44 43 39 37 40 43 46 51 55 56 60 66 70 71 69 73 76 72 68 72 72 71 70 71 74 75
68 69 66 80 66 67 69 71 72 80 83 80 79 76 71 78 55 45 45 43 41 43 47 47 53 61 58 66 72 63 63 75 69 76 80 92 76 73 74 71 76 83 76 76
73 66 79 66 58 63 58 70 82 86 80 74 71 61 51 41 44 40 46 44 47 50 48 52 58 58 64 74 70 70 77 86 79 87 92 98 97 78 82 84 88 83 77 84

GFSCGP_925_rhum_024.txt.gz
RH
23 26 24 20 18 16 18 20 20 21 18 44 57 65 69 76 78 81 84 84 84 85 81 94 99 96 93 86 79 75 68 88 61 54 50 46 45 46 51 48 45 46 45 45
26 25 20 27 26 25 25 26 24 24 28 44 54 58 61 67 76 76 80 84 84 84 84 83 87 84 83 83 80 78 79 64 51 49 50 51 52 52 48 48 48 47 46 45
28 21 24 27 31 32 34 28 27 27 31 37 43 52 58 55 68 68 70 69 72 81 87 86 87 83 68 51 48 52 60 51 47 48 44 44 49 51 51 50 49 48 48 49
31 29 27 28 30 31 31 30 27 28 34 42 34 58 50 58 68 69 70 72 71 76 76 67 63 53 46 46 45 44 44 44 42 43 44 46 49 56 64 57 52 52 52 52
30 29 29 30 27 28 33 32 32 33 40 37 39 60 52 63 69 70 73 72 71 71 65 62 54 50 47 46 44 43 44 44 44 45 47 51 54 57 57 54 52 53 52 56
32 27 28 28 30 26 29 40 48 54 52 58 45 47 55 69 64 67 66 69 70 65 61 60 56 54 52 50 46 45 45 47 50 51 52 51 51 53 54 54 54 50 49 52
36 34 31 28 32 31 42 48 70 68 74 71 50 53 48 49 55 60 65 67 67 69 71 70 62 59 57 56 56 54 53 54 53 52 52 51 50 49 46 44 45 45 46 46
46 40 30 28 30 34 38 46 73 58 78 67 50 61 54 49 48 53 58 64 64 67 72 70 63 62 62 58 54 51 50 51 52 50 49 42 41 42 45 46 48 49 52 55
45 39 30 26 28 32 38 48 44 71 71 78 68 50 51 58 60 61 61 60 63 68 68 69 65 63 59 54 52 50 50 49 48 48 48 51 55 56 57 55 56 58 60 63
40 39 31 27 30 34 31 40 51 69 54 51 61 60 69 63 64 62 62 66 72 72 72 73 69 62 56 50 43 41 44 45 47 54 58 56 56 48 36 38 49 54 62 64
37 38 37 32 37 39 41 45 55 59 70 70 77 69 54 58 56 59 66 72 71 71 72 71 67 57 46 41 40 40 37 33 39 42 47 47 32 25 22 32 56 58 58 56
43 54 60 36 34 39 34 40 45 63 48 84 79 61 44 54 56 59 70 68 73 71 68 62 55 50 47 45 41 38 32 34 39 46 32 27 25 29 39 49 51 49 46 48
41 52 67 48 41 34 37 49 58 61 70 66 76 58 52 59 62 62 69 75 76 73 69 67 60 54 49 47 44 35 36 36 31 27 26 27 34 38 38 39 41 41 50 62
50 56 48 52 39 42 35 43 52 51 75 64 68 44 48 60 66 72 78 78 76 71 66 65 64 54 52 49 43 34 31 28 27 26 29 33 39 44 45 46 46 48 68 84
47 53 50 56 58 43 36 38 54 51 50 54 48 57 45 59 67 70 75 77 74 70 65 63 62 58 52 46 36 32 28 27 27 28 32 44 54 49 49 51 52 61 82 93
64 65 45 58 65 64 52 42 46 50 48 59 55 57 50 61 76 78 77 77 73 68 60 59 55 52 48 40 32 29 26 26 29 33 45 55 50 50 55 60 66 75 93 96
65 73 55 49 70 58 53 50 54 52 52 50 58 51 73 74 76 80 82 75 71 66 60 55 53 48 37 32 28 26 27 28 31 35 50 50 53 59 63 74 79 82 83 93
73 73 77 67 66 48 36 42 47 48 46 50 54 57 71 69 74 74 74 74 73 64 57 56 50 36 34 29 27 28 29 32 35 44 49 54 60 65 69 65 77 84 80 77
67 80 94 69 69 43 26 39 55 55 50 62 62 68 72 78 70 69 73 69 68 62 54 46 33 30 32 28 29 31 34 36 43 48 56 58 61 67 65 63 64 76 73 73
72 71 70 94 55 44 35 43 45 42 70 57 66 76 82 77 89 71 72 68 63 53 40 31 27 30 30 32 34 36 39 43 48 54 57 60 60 66 64 64 62 70 80 66
96 97 78 100 74 63 44 47 44 56 54 74 71 75 87 83 74 65 71 65 55 40 30 27 30 32 34 37 40 42 46 50 55 59 61 62 64 67 68 63 56 61 68 74
86 96 97 95 87 65 49 51 56 58 51 70 77 80 77 75 74 75 68 54 35 31 33 34 34 36 40 45 47 49 55 58 64 66 66 69 70 69 70 69 62 63 74 69
72 67 78 70 70 48 51 56 53 56 54 71 76 78 73 82 83 77 51 40 40 33 36 36 39 44 47 50 53 60 63 70 69 72 68 76 75 75 73 72 67 70 71 71
69 63 77 63 46 60 61 56 58 60 66 66 75 82 78 79 84 58 55 54 42 38 40 43 47 50 54 54 63 72 66 60 65 75 69 78 80 87 74 74 74 74 73 77
71 68 66 76 66 64 63 69 60 67 74 78 81 81 80 79 69 61 51 46 40 42 46 47 50 60 59 62 72 70 69 74 81 81 76 84 92 99 85 74 72 75 83 87
74 66 76 72 52 52 52 49 72 78 83 82 82 78 62 61 50 50 54 44 46 49 49 50 59 62 62 71 75 77 81 89 91 98 94 87 95 99 97 85 81 86 85 82

GFSCGP_925_rhum_027.txt.gz
RH
24 20 20 20 17 14 18 19 19 22 26 45 59 59 61 63 60 65 66 65 68 73 88 98 100 99 100 99 87 77 81 72 78 85 62 57 50 50 54 55 47 48 46 46
23 25 21 28 25 24 24 25 27 31 33 43 51 58 62 62 67 65 65 68 71 83 84 96 98 98 93 96 97 85 79 73 71 62 54 49 51 59 52 48 48 48 48 48
27 23 26 28 29 30 32 29 29 30 36 38 40 45 59 62 66 69 70 70 78 85 87 86 91 91 93 91 86 86 78 54 55 52 53 56 56 55 54 52 51 50 50 51
32 30 26 28 31 30 37 30 29 30 29 31 34 27 49 66 72 72 73 75 78 80 78 79 81 70 63 57 61 71 78 55 56 58 54 55 59 63 67 59 52 52 51 50
32 29 29 32 29 30 37 33 32 31 33 33 34 32 47 65 74 71 68 67 69 71 61 60 52 54 56 51 51 52 52 52 50 51 52 53 55 55 54 53 52 52 45 45
33 28 30 30 34 32 39 38 42 45 42 38 41 36 38 64 60 63 60 61 63 60 55 53 56 57 54 48 47 48 52 53 53 53 52 52 53 52 46 43 45 46 46 47
34 34 30 30 33 33 36 39 49 52 56 50 48 49 35 40 49 53 58 56 58 56 54 53 53 54 60 61 55 55 54 53 53 51 49 40 39 42 44 51 58 58 61 58
38 39 29 30 32 33 40 40 58 52 62 54 46 52 39 46 40 47 48 52 56 56 56 56 57 59 63 64 59 53 54 54 51 48 43 41 43 47 52 55 56 54 59 60
43 39 30 30 31 32 40 40 43 61 69 59 46 45 40 51 50 53 53 57 56 54 57 57 61 65 65 63 58 54 50 46 46 43 44 50 54 55 50 36 35 47 55 62
40 41 33 29 32 35 34 39 45 50 52 45 42 51 42 56 53 54 56 56 54 54 58 60 62 66 64 62 51 43 42 39 42 49 54 54 48 29 24 24 30 47 50 48
36 40 39 35 37 39 40 44 52 48 54 45 51 33 45 45 49 53 51 51 54 58 60 60 62 62 56 47 46 44 39 40 46 46 48 33 26 24 26 30 33 34 37 44
42 51 53 36 36 39 36 40 43 49 46 65 58 40 38 47 48 49 50 55 58 59 59 59 59 54 50 50 46 39 35 36 39 38 27 25 25 27 31 34 38 43 46 49
44 52 54 43 36 35 38 46 48 53 60 60 73 36 39 51 52 49 51 57 62 60 57 54 54 52 51 51 48 38 37 36 31 27 25 25 28 34 42 44 47 58 69 80
50 51 46 43 36 42 42 52 46 44 57 51 53 37 34 48 54 57 58 62 60 60 58 53 52 50 51 51 45 36 33 29 27 26 26 32 42 50 49 51 61 66 73 91
46 48 50 54 54 46 36 42 51 43 44 48 40 44 34 35 46 52 61 65 63 61 57 52 52 52 52 52 45 35 30 28 27 28 32 41 51 53 52 55 59 71 84 95
59 59 51 57 61 58 52 44 43 50 48 46 47 46 36 42 53 60 64 65 63 59 54 49 51 54 52 50 42 32 29 27 28 31 34 47 56 55 54 58 72 82 92 90
60 65 55 53 60 49 52 47 44 45 46 42 48 35 56 59 61 55 62 64 62 58 54 50 52 50 48 42 32 31 27 28 30 34 37 53 56 54 56 69 74 76 92 80
65 61 64 62 64 47 32 45 43 44 44 42 43 45 52 52 59 61 59 62 62 58 54 49 50 49 40 33 30 28 28 31 34 37 49 52 54 58 65 76 71 74 88 87
58 67 78 68 55 40 24 34 48 54 36 42 42 49 62 68 63 61 62 59 58 57 52 50 49 38 36 32 28 30 33 36 40 48 51 54 59 65 74 72 72 75 82 90
64 64 65 75 51 47 34 32 46 42 57 42 50 63 70 64 70 48 62 62 61 58 53 44 35 33 32 30 32 35 38 43 47 51 56 61 65 70 74 74 74 68 82 83
93 95 75 79 68 56 40 40 45 47 47 52 59 61 72 66 56 57 62 64 58 50 38 31 33 34 34 35 39 42 46 51 53 60 64 67 68 73 70 70 71 64 72 77
72 88 89 88 76 63 44 49 54 51 50 53 64 64 69 61 67 66 66 58 43 35 37 35 37 38 40 44 44 50 55 55 64 69 70 71 68 78 73 73 74 76 80 85
66 63 68 61 62 48 46 54 51 54 51 52 64 62 65 72 69 62 55 39 36 39 39 38 40 45 46 49 49 59 62 69 64 60 74 76 72 82 82 80 75 76 79 82
68 61 67 61 46 53 52 48 52 51 53 54 60 60 70 68 71 52 46 44 48 50 42 42 46 50 52 50 52 67 68 65 71 81 82 79 82 83 87 89 78 75 82 82
65 65 66 69 59 54 50 57 54 55 62 63 66 70 72 72 63 51 57 52 47 46 50 50 50 58 56 54 64 72 72 77 89 89 89 91 90 88 93 97 83 79 80 81
68 63 72 67 48 48 49 47 59 67 67 69 74 76 74 61 52 49 58 62 49 52 52 53 58 59 62 65 70 73 73 78 93 93 89 90 94 95 100 100 90 81 80 87

GFSCGP_925_rhum_030.txt.gz
RH
19 18 15 11 12 10 10 12 13 15 25 18 17 24 29 36 35 38 38 40 41 41 54 71 75 69 67 76 80 82 94 80 77 64 87 73 71 69 59 60 63 62 60 59
18 16 19 20 15 14 12 13 19 22 24 23 26 30 33 36 39 37 37 39 40 48 54 73 76 72 75 76 78 83 88 84 79 73 64 58 58 61 57 58 63 60 59 58
18 21 22 18 17 17 20 18 22 20 26 25 25 30 34 40 43 46 45 40 43 50 57 63 69 73 75 76 81 77 74 72 65 58 63 64 66 60 53 55 54 58 61 57
21 21 20 19 20 19 21 22 20 23 20 19 23 19 32 38 42 46 47 48 52 58 58 61 66 70 68 69 70 66 64 57 60 64 55 54 45 45 54 56 56 55 58 57
25 22 21 20 25 24 25 22 20 20 20 22 23 21 30 42 44 48 52 56 57 54 53 52 53 54 53 62 66 65 60 53 58 57 53 55 55 56 55 54 54 55 55 57
25 22 22 23 26 23 26 25 25 24 24 28 20 24 15 32 33 45 51 53 54 49 45 41 40 42 44 49 56 60 52 53 56 58 61 59 58 52 46 45 41 36 39 43
24 25 23 24 26 28 27 25 27 35 34 30 33 28 16 23 32 38 48 45 49 42 38 36 38 38 43 51 55 55 52 55 58 58 53 50 47 44 38 40 40 45 42 43
25 32 23 24 25 22 25 24 26 27 32 28 34 31 24 29 28 33 38 37 42 39 37 36 36 39 46 50 52 51 50 50 51 49 47 46 44 42 43 48 52 43 40 43
25 27 24 26 25 25 29 27 31 41 55 48 24 27 26 34 32 35 38 36 38 36 36 38 40 44 48 50 54 51 46 43 46 48 45 47 51 54 49 42 41 43 48 45
28 31 27 27 25 28 27 27 34 35 46 32 20 24 19 36 36 37 40 39 36 33 35 39 43 50 50 51 55 49 41 42 48 47 51 49 48 41 38 40 41 41 40 40
24 25 33 30 28 27 32 30 31 28 37 28 25 15 26 28 31 36 37 36 35 35 37 42 45 51 51 49 44 42 40 42 43 44 48 45 37 37 38 38 39 42 45 44
30 31 40 30 29 29 27 27 25 28 32 43 43 21 23 31 32 31 34 34 34 35 38 42 48 49 45 41 39 40 38 38 42 41 38 36 34 36 37 39 42 46 49 50
32 34 41 36 31 29 30 29 26 33 37 38 59 18 23 29 32 32 33 32 36 41 43 44 46 43 40 38 38 37 40 41 38 32 30 30 34 37 38 42 48 52 52 54
34 35 32 35 26 26 32 32 28 25 36 26 29 14 19 22 26 27 33 34 40 44 44 44 42 41 40 38 39 38 43 39 34 29 27 30 37 41 46 51 53 54 57 62
36 36 35 33 34 32 27 28 31 28 25 32 16 20 12 16 18 22 29 35 39 44 44 43 41 39 38 39 40 39 38 36 32 29 31 33 41 51 53 56 56 56 63 64
41 42 43 44 41 37 36 29 26 28 26 28 22 23 16 18 23 28 37 40 43 44 43 42 40 38 36 37 39 40 36 32 31 32 34 35 46 53 53 55 56 57 59 62
44 48 43 39 42 41 61 37 27 25 27 28 29 21 20 27 30 30 33 39 41 41 42 41 38 37 36 38 41 36 31 32 34 34 35 42 52 52 51 52 53 54 58 64
51 45 56 59 60 76 19 26 26 26 23 20 23 19 22 24 31 34 32 33 40 40 42 40 38 38 38 37 34 30 29 31 34 34 38 47 51 50 50 53 56 57 58 60
38 45 71 83 40 25 13 23 27 33 22 20 21 20 26 39 41 35 38 37 38 41 41 41 40 40 36 32 31 29 30 32 34 36 41 44 48 51 51 53 58 62 58 59
43 45 48 66 86 85 26 30 34 33 32 24 29 32 36 42 43 20 35 42 43 43 43 41 42 37 32 30 31 33 32 33 34 39 43 47 52 54 53 59 63 62 60 58
80 83 84 66 81 42 25 25 36 38 30 30 36 35 41 43 27 38 39 44 44 45 43 37 32 29 31 39 43 35 33 36 36 48 53 53 52 54 57 62 62 61 59 62
57 75 90 74 93 78 29 39 45 34 34 36 35 38 44 38 48 47 47 47 46 41 35 31 36 45 52 41 39 33 30 38 52 56 55 50 53 61 60 63 62 61 62 65
51 45 46 44 39 32 33 33 33 39 41 39 40 35 45 47 47 49 49 47 38 32 32 42 49 54 46 43 42 36 38 56 58 55 54 57 63 64 64 62 62 62 62 63
45 45 50 48 28 32 32 31 31 32 36 34 34 37 39 45 46 49 44 38 34 35 53 65 54 42 41 44 48 52 59 60 60 61 61 61 64 64 64 60 69 68 64 66
45 48 46 48 36 32 31 34 36 38 40 43 42 48 50 51 52 46 40 40 51 53 52 45 43 40 41 47 51 58 64 66 65 64 66 67 68 66 63 63 68 71 70 69
45 45 56 52 42 43 39 40 45 51 50 52 56 57 59 56 49 43 50 57 57 58 55 46 48 50 51 62 62 61 66 69 70 72 72 69 72 68 70 70 70 76 79 75

GFSCGP_925_rhum_033.txt.gz
RH
18 18 19 14 13 16 13 12 10 10 12 10 11 11 14 20 20 22 25 29 30 33 34 45 40 36 40 51 63 67 79 87 83 76 71 71 71 63 67 63 64 63 58 58
18 20 16 14 12 12 11 11 14 13 13 15 10 11 17 19 20 19 22 27 29 32 38 46 49 49 49 56 64 74 81 85 72 64 62 57 55 57 53 55 60 57 57 55
23 29 17 16 12 12 12 13 14 14 15 14 15 16 20 23 23 24 23 23 26 30 38 46 50 52 58 62 68 75 77 76 62 54 54 52 55 55 53 54 54 54 57 54
24 18 16 17 14 12 17 16 14 16 18 19 16 19 18 22 28 32 32 30 28 30 36 43 49 58 63 70 76 69 64 56 54 51 47 47 42 40 43 46 48 53 56 53
23 18 16 17 18 17 22 17 17 16 15 21 17 16 42 23 24 28 28 32 33 37 40 44 51 58 57 58 56 50 51 48 50 52 46 50 45 50 51 51 54 54 52 52
20 17 17 19 19 18 18 19 19 18 16 24 15 18 16 22 20 24 29 33 37 39 42 42 44 44 45 53 54 52 45 45 49 50 52 51 53 49 45 44 41 33 32 34
16 18 19 18 20 19 18 20 29 32 27 28 19 19 14 12 19 19 33 38 40 40 39 35 33 33 39 48 52 52 43 45 50 53 54 55 50 44 38 37 34 38 36 34
23 28 19 18 19 19 20 17 29 30 26 20 21 19 16 18 19 22 30 34 39 38 34 30 29 31 37 43 46 43 44 46 51 51 47 42 38 36 36 39 41 35 35 38
20 24 19 20 19 17 19 23 20 27 45 35 16 13 20 23 23 24 30 33 38 35 31 28 29 31 37 42 45 44 44 45 47 43 39 42 42 44 39 37 37 36 39 35
18 24 19 22 20 21 23 19 25 24 38 31 15 13 17 24 23 25 30 33 34 32 29 29 30 34 39 43 47 47 44 41 42 40 41 44 46 41 34 36 37 38 37 39
16 18 27 24 24 19 26 24 21 22 27 30 23 16 14 17 20 24 26 29 31 31 29 30 32 37 41 44 49 48 40 37 36 39 45 44 40 35 36 36 36 36 40 41
21 20 29 26 22 21 21 21 22 30 25 28 39 21 14 17 17 21 24 26 28 28 27 28 33 38 42 46 45 42 37 33 38 41 41 45 35 31 33 34 35 39 43 44
24 22 31 30 26 23 21 19 20 19 27 28 46 22 15 17 17 18 20 23 27 28 27 28 34 39 42 43 40 38 35 34 38 43 39 32 31 32 34 33 37 42 44 43
33 23 26 33 23 20 27 20 19 22 32 26 21 16 13 16 16 15 18 19 23 27 28 31 34 39 40 39 38 36 34 38 45 34 34 26 29 35 34 37 42 45 46 46
30 32 24 22 24 22 21 19 20 21 20 25 20 12 8 9 11 12 14 18 21 27 33 34 36 37 38 37 37 35 36 43 38 43 29 27 32 36 37 42 46 46 47 50
30 33 35 40 29 28 28 23 18 17 17 16 14 15 11 14 11 15 16 20 22 26 32 33 35 36 36 37 36 35 39 42 42 36 29 32 32 34 38 43 47 45 45 47
36 36 40 34 32 31 55 34 24 18 16 18 24 17 12 17 17 18 18 22 24 26 29 32 34 35 36 35 36 38 43 42 34 29 31 32 32 38 40 41 40 42 46 50
42 41 48 48 63 76 15 16 16 20 17 14 14 13 12 14 19 21 20 21 23 25 27 30 33 36 36 35 38 38 36 34 32 31 31 30 36 39 40 40 41 44 48 50
30 38 58 80 35 22 16 13 19 21 18 16 17 16 15 20 28 25 22 21 22 23 27 31 34 35 35 36 36 33 35 28 31 31 29 31 34 38 40 40 41 45 51 51
33 35 41 51 82 84 30 23 23 23 29 19 19 19 20 22 34 24 24 24 26 29 31 34 36 36 37 33 33 32 32 37 34 29 32 35 35 40 41 42 45 50 53 51
72 74 75 58 73 43 22 21 26 36 38 27 24 23 25 28 30 36 31 28 30 31 34 37 37 36 33 32 41 53 46 39 32 30 38 40 40 42 42 45 49 54 51 53
55 70 85 66 92 78 22 26 36 36 25 24 28 26 33 33 31 37 34 33 33 35 38 38 35 30 38 61 57 49 32 27 40 49 45 43 40 41 45 52 55 53 53 55
44 38 43 39 38 27 23 23 23 26 31 30 30 30 31 33 33 32 37 37 38 36 32 30 39 64 68 62 49 33 32 56 50 46 46 46 46 50 54 53 52 52 54 58
33 34 39 38 22 22 23 24 25 27 31 31 31 33 35 37 37 38 41 39 34 30 37 65 71 68 62 44 39 43 45 50 55 52 49 50 53 55 56 57 54 51 63 71
38 36 34 38 29 27 24 31 38 41 40 40 40 41 48 48 44 44 39 34 39 55 64 68 70 58 47 42 47 46 54 60 52 50 55 59 62 62 58 55 52 57 66 76
35 39 52 49 41 48 41 46 50 49 50 49 50 48 45 44 42 42 47 61 88 90 71 69 74 64 49 50 60 61 54 54 62 64 63 65 68 67 64 62 62 67 69 74

GFSCGP_925_rhum_036.txt.gz
RH
21 22 22 19 19 18 16 17 14 10 9 11 22 17 14 14 17 26 27 29 30 28 29 32 30 28 32 56 64 65 81 87 72 82 73 70 73 68 66 66 63 64 62 60
26 20 26 21 17 17 15 15 19 11 10 10 11 10 11 14 16 19 26 29 31 33 33 42 38 32 36 60 64 75 81 82 80 69 65 66 63 63 62 59 63 58 58 57
34 25 26 18 15 17 14 14 18 16 11 10 13 11 15 14 14 15 21 24 27 32 39 44 42 44 46 63 67 77 82 82 75 66 58 56 54 55 55 58 61 58 58 57
40 25 22 18 16 13 16 19 17 15 16 20 20 27 18 17 19 18 19 22 26 28 34 41 47 48 52 69 71 76 77 75 71 55 52 52 54 54 50 51 55 58 58 54
44 40 28 17 20 18 21 21 19 13 16 27 21 29 29 21 26 24 27 25 25 26 30 38 46 49 64 69 73 72 71 69 61 50 48 50 48 50 51 51 56 55 56 54
29 37 42 23 19 17 19 19 17 18 19 54 39 34 29 29 27 28 24 27 28 30 36 37 43 55 62 68 69 70 64 52 51 49 48 49 47 48 50 49 49 43 37 36
16 18 19 20 25 16 15 18 36 74 73 44 16 18 28 24 25 63 29 27 30 36 39 40 47 53 55 57 55 51 45 45 49 50 52 55 54 47 43 38 36 38 38 35
21 40 18 16 16 38 39 15 39 62 94 44 19 21 18 18 17 18 25 31 35 39 42 42 42 41 46 51 52 49 44 45 49 53 54 52 45 39 35 40 44 42 35 39
40 38 25 18 14 16 17 21 18 32 46 57 22 11 22 18 19 19 30 33 38 38 39 37 34 36 42 47 50 47 42 44 51 52 47 40 39 40 41 46 40 37 39 38
45 77 39 21 17 17 20 16 30 24 40 41 19 15 34 24 20 22 30 35 37 37 36 33 30 34 38 43 45 45 43 44 49 46 41 44 45 46 41 40 38 39 38 39
29 45 33 24 22 16 24 24 19 17 29 48 49 24 14 16 17 21 25 32 34 37 34 32 30 32 37 42 46 48 46 44 44 41 42 45 46 41 40 39 37 37 38 42
17 21 34 24 18 17 18 23 21 55 33 36 56 38 14 15 14 19 21 25 30 33 32 30 31 33 37 42 46 49 47 41 41 39 44 46 42 42 37 35 35 36 40 44
24 27 39 26 23 21 22 17 16 20 34 39 70 36 14 14 14 14 18 21 27 30 30 30 32 34 39 42 47 49 45 38 37 40 43 45 43 34 34 34 33 37 42 45
33 24 23 38 24 22 28 22 16 20 59 40 35 18 14 14 16 14 18 18 20 28 28 28 30 36 40 42 46 44 41 36 37 40 44 38 38 36 35 35 36 42 45 46
28 27 22 19 19 22 24 21 18 18 22 34 29 17 13 12 15 13 13 16 18 19 26 27 31 41 39 42 42 41 38 36 39 43 39 44 33 33 37 37 42 46 47 47
29 38 34 36 27 25 28 21 21 20 17 17 16 16 11 13 15 16 16 15 17 19 20 28 30 33 37 40 40 38 37 38 41 45 42 48 33 34 35 38 43 46 46 43
36 47 52 53 34 33 52 34 26 22 17 18 24 20 15 14 13 17 18 18 20 22 22 26 31 33 35 37 38 37 37 41 46 41 38 33 36 36 37 41 41 42 41 46
40 47 66 71 65 65 20 15 15 18 15 13 13 15 15 21 20 18 18 20 22 22 23 24 28 31 34 36 37 37 41 46 40 35 38 36 32 36 38 42 44 41 42 47
30 51 75 94 54 29 21 15 18 19 19 17 18 18 16 16 22 24 19 23 24 25 24 24 26 30 34 36 38 39 39 36 37 35 38 32 32 37 46 42 42 43 45 49
29 39 70 69 80 76 33 21 18 19 38 23 23 25 25 22 47 40 31 25 27 24 26 26 30 34 36 37 37 35 35 36 41 43 44 42 44 50 46 43 43 44 48 52
74 79 87 73 87 59 24 21 23 43 52 28 28 29 31 37 39 39 36 33 28 30 36 37 37 37 39 42 41 54 66 69 67 48 47 49 59 52 42 41 44 48 52 54
71 83 94 83 95 88 20 25 38 42 33 31 30 32 38 37 35 35 31 35 33 34 37 36 52 61 63 64 64 67 61 48 53 57 58 54 55 48 45 47 51 54 57 56
50 44 61 57 61 32 21 25 24 29 31 33 37 34 36 40 37 36 38 39 36 31 41 54 63 69 70 71 62 56 49 53 50 53 61 59 55 52 51 53 55 56 54 55
31 32 46 42 23 23 23 23 31 36 41 37 37 40 45 51 47 43 42 38 46 56 62 67 69 68 63 57 52 55 57 56 67 71 64 55 53 55 57 60 58 57 57 61
40 34 33 35 29 30 39 44 49 45 46 46 44 46 46 45 44 46 51 60 69 72 71 69 67 64 60 58 57 51 52 64 69 56 55 59 64 66 68 66 61 58 58 63
34 36 64 64 46 49 57 48 44 48 50 46 46 53 51 52 62 71 78 79 79 83 80 78 74 67 57 51 53 60 61 55 55 62 65 67 68 69 71 70 67 66 66 67

GFSCGP_925_rhum_039.txt.gz
RH
45 32 39 32 25 22 23 28 23 18 14 30 27 24 27 24 33 40 38 39 37 33 31 34 34 47 48 52 60 69 74 76 66 61 74 85 82 75 71 65 57 60 60 61
53 49 35 27 22 24 30 32 23 18 12 21 25 25 23 21 25 36 41 42 39 45 44 39 34 53 60 61 77 75 78 74 65 62 72 72 70 66 64 58 63 62 58 59
47 36 27 25 26 24 28 26 22 23 13 12 17 24 19 19 20 26 34 36 36 44 50 49 43 61 69 69 79 84 80 77 66 67 71 68 64 64 64 62 62 59 57 57
39 35 34 33 28 20 25 18 23 25 22 25 22 38 25 22 22 20 32 37 40 41 50 49 49 61 71 77 74 77 77 75 67 73 66 62 59 64 60 58 59 59 58 54
42 36 39 40 31 21 27 23 25 27 24 31 26 37 37 21 27 24 26 33 41 40 52 53 55 52 68 77 81 78 78 70 65 76 59 54 57 56 55 56 60 58 57 54
36 33 40 28 24 22 24 22 27 39 40 48 27 34 42 29 22 26 26 35 35 42 49 52 53 71 76 72 78 78 71 67 71 72 52 52 57 54 57 58 57 56 57 59
30 27 30 32 28 25 28 29 56 66 80 70 35 40 36 28 24 28 29 32 38 52 53 62 70 72 76 71 66 63 72 71 69 51 54 53 53 52 51 53 45 41 38 38
34 48 33 24 34 37 27 37 61 70 88 71 42 40 30 24 28 36 33 34 45 54 56 62 63 68 73 64 66 69 75 59 51 51 54 55 49 44 39 38 38 40 38 37
43 47 40 31 34 23 25 33 31 62 69 83 50 22 26 24 31 41 51 45 54 58 59 62 60 60 67 67 64 54 51 51 51 53 56 53 44 38 39 42 45 42 37 39
49 49 45 39 32 23 22 22 41 50 50 53 36 29 45 32 31 45 48 54 55 54 54 53 52 52 52 53 55 50 48 49 51 55 52 42 38 40 41 42 39 39 40 40
50 49 56 47 42 31 29 30 26 31 52 59 71 41 19 26 29 31 50 48 54 53 53 49 46 47 47 48 49 50 46 50 54 50 42 42 44 46 40 40 40 41 47 41
43 54 75 49 34 22 21 33 41 65 38 52 74 52 17 17 25 28 27 43 50 47 48 45 42 46 48 46 47 46 46 50 50 43 44 48 48 42 42 40 40 44 39 41
31 38 55 38 33 30 26 23 23 34 56 49 66 50 20 16 15 23 26 31 45 50 47 43 43 45 50 50 50 48 49 46 43 42 43 47 45 41 42 42 50 40 39 43
38 33 42 50 36 31 34 36 26 33 69 48 49 37 25 22 21 20 20 20 41 44 42 42 41 43 45 50 55 51 49 43 41 45 45 43 43 43 46 47 53 42 44 46
38 38 25 28 30 27 27 30 30 25 38 47 40 34 27 20 21 22 23 22 19 25 34 42 44 56 50 53 55 52 50 42 42 42 44 43 45 44 46 48 50 44 50 49
36 48 35 40 36 35 34 31 31 28 27 25 26 29 19 21 21 22 21 21 25 28 30 40 58 60 56 57 52 50 46 40 40 42 42 42 48 60 44 49 45 46 45 44
49 54 67 56 44 40 51 35 32 32 28 27 30 26 31 31 28 28 27 29 27 28 30 34 36 49 49 50 50 47 44 43 42 44 42 43 42 47 52 52 42 42 44 46
60 58 76 75 65 48 37 19 19 23 25 26 26 25 31 29 33 34 31 34 34 32 34 34 35 38 45 49 47 46 44 45 42 40 45 50 59 46 44 43 43 45 47 45
55 73 83 70 78 49 32 24 23 27 34 31 35 34 32 30 33 50 41 36 35 34 34 35 44 45 46 47 48 48 43 39 42 47 47 47 47 52 52 55 51 59 54 50
50 65 67 87 80 65 50 24 24 22 55 37 40 43 45 46 70 63 44 42 46 45 48 49 52 53 49 55 52 64 68 64 60 59 62 63 66 56 46 61 60 50 50 50
85 79 79 94 89 73 38 27 24 44 59 39 41 43 45 51 57 48 40 46 44 53 61 65 68 69 70 66 61 71 64 63 64 70 70 56 49 47 66 56 51 52 52 52
74 93 93 96 98 78 30 28 43 59 42 44 41 46 48 52 55 53 48 47 53 63 68 71 72 70 66 63 59 62 60 59 61 60 54 49 60 66 62 55 52 52 54 56
75 77 83 73 81 57 32 45 51 53 56 54 59 63 63 64 62 51 61 65 71 77 80 78 71 60 52 48 52 54 59 58 57 54 64 66 58 59 57 55 56 58 58 58
42 40 60 50 41 39 60 56 55 58 63 56 54 57 58 58 58 64 68 70 71 71 68 65 61 59 57 56 57 59 61 59 60 61 59 60 59 56 57 60 63 65 63 62
60 44 46 46 65 66 63 63 60 58 57 57 55 57 60 66 72 76 76 70 68 67 66 67 67 65 61 59 56 53 55 58 58 59 62 59 59 62 66 69 68 67 67 67
49 52 69 82 70 70 72 64 61 63 62 62 67 73 71 74 78 75 76 76 81 85 78 72 66 62 56 54 54 54 54 56 61 61 57 56 59 68 70 68 69 71 71 68

GFSCGP_925_rhum_042.txt.gz
RH
40 41 42 35 31 28 28 27 32 29 26 33 33 28 32 37 53 62 59 50 51 56 52 53 55 60 63 55 58 62 75 75 73 76 71 65 62 63 64 68 73 69 58 58
44 44 39 35 29 30 30 33 35 26 21 30 32 28 27 32 41 46 49 44 45 49 47 48 51 58 63 65 65 65 72 74 71 68 63 59 64 70 64 64 60 58 60 61
43 36 32 32 28 28 30 35 34 30 20 16 29 27 24 24 26 41 38 36 36 41 45 48 55 61 63 78 74 65 71 75 73 68 61 65 70 67 69 63 65 64 60 60
39 32 37 36 36 31 32 28 28 25 31 30 21 34 29 24 24 38 45 43 43 39 44 47 58 63 68 81 78 73 73 76 70 60 60 72 70 73 69 64 65 61 60 58
36 37 34 36 34 28 31 24 28 27 31 32 30 34 31 28 26 26 40 46 42 45 45 52 65 62 69 79 79 74 79 77 72 63 76 76 68 63 61 64 62 59 58 56
32 34 35 32 28 25 25 29 38 48 43 43 32 34 36 31 23 23 28 38 47 47 50 49 66 73 79 87 82 73 79 80 78 72 78 74 63 59 63 65 62 60 58 57
32 35 32 30 32 28 28 36 53 59 70 54 43 43 37 29 28 27 32 38 45 49 62 74 88 84 94 89 89 90 86 85 78 74 75 69 57 58 59 61 61 60 62 52
45 43 31 31 33 39 36 36 59 46 72 58 44 51 39 28 26 25 27 34 49 58 62 72 80 87 87 92 96 92 84 79 75 74 76 64 60 60 58 61 60 60 45 41
43 46 41 35 34 29 31 40 35 65 70 78 56 33 28 30 36 40 49 44 62 72 72 71 74 80 86 90 89 85 79 75 72 64 61 60 59 57 58 48 43 40 43 46
41 49 40 37 32 29 30 25 38 53 53 61 43 34 44 31 34 44 47 51 64 67 72 76 77 81 80 72 71 74 71 70 66 62 54 52 46 43 46 49 45 51 47 46
47 38 40 40 37 33 34 32 30 40 57 58 66 41 26 36 39 46 50 53 64 68 67 68 70 69 67 65 65 64 66 68 58 57 59 52 44 45 46 44 42 42 48 56
44 56 55 40 33 35 32 34 38 63 37 59 74 47 28 29 33 46 52 53 61 59 60 59 63 66 65 61 56 51 51 53 55 55 50 45 45 46 44 42 41 52 56 56
44 53 62 45 37 36 36 30 34 51 59 53 67 51 24 21 20 30 39 51 55 59 60 55 57 60 61 62 58 55 53 56 58 50 46 47 48 43 43 44 53 53 52 46
39 44 50 55 38 36 37 35 39 39 68 52 56 38 28 25 24 22 26 32 54 57 54 51 49 53 55 58 58 63 56 56 56 49 48 48 44 42 45 48 49 50 51 46
36 40 32 32 31 30 30 32 35 33 37 45 37 40 28 22 24 23 26 24 38 41 42 50 54 55 55 57 60 60 55 56 52 51 49 49 47 48 51 52 52 50 48 48
41 40 34 36 41 33 32 30 33 32 30 37 31 32 34 29 29 32 28 30 34 35 45 51 53 61 63 63 63 65 57 56 56 56 55 52 49 49 49 49 50 51 51 48
49 59 66 56 47 40 58 39 33 31 31 30 37 33 32 39 36 32 38 38 39 39 40 47 60 64 66 64 64 70 63 58 54 50 52 51 48 51 54 60 66 63 58 51
61 66 76 76 60 63 45 30 29 39 35 32 33 34 41 46 49 47 40 42 42 44 52 61 64 66 66 65 64 62 59 53 52 53 52 49 51 58 70 78 66 67 63 48
55 75 82 70 73 51 36 24 27 37 39 34 42 41 38 46 52 52 53 58 61 59 56 57 57 59 60 62 58 51 54 55 57 60 64 63 70 75 77 82 80 70 63 58
63 75 75 91 67 62 47 28 28 36 61 40 47 50 46 47 72 65 59 60 62 62 62 67 68 68 66 64 60 62 67 69 77 74 74 69 73 80 83 75 64 57 59 57
82 85 77 96 78 65 46 31 29 39 46 45 48 48 48 60 65 63 66 68 67 68 70 68 65 64 68 63 60 66 70 72 73 78 82 89 81 72 66 63 59 56 55 54
64 85 90 95 87 60 44 32 39 50 50 54 53 60 75 68 61 64 68 70 70 72 70 67 67 64 55 50 50 58 64 70 78 70 66 65 63 60 57 58 59 57 57 60
63 62 74 71 72 53 51 47 53 56 62 64 73 71 70 66 70 73 78 79 79 76 65 54 52 55 56 56 58 64 63 58 59 56 57 57 54 56 58 60 59 60 60 66
50 62 69 60 68 70 73 70 68 66 66 64 65 63 62 71 72 75 74 72 70 64 64 63 62 62 59 59 58 58 58 58 57 56 54 54 58 58 57 55 58 65 68 67
62 52 59 88 74 71 72 69 65 64 66 68 67 67 72 74 76 72 72 69 71 73 71 67 65 63 61 56 55 55 54 54 54 56 58 58 58 55 50 48 54 64 62 66
56 55 69 83 70 75 79 71 66 69 72 71 74 78 74 72 78 82 88 85 81 77 68 66 61 58 59 59 60 59 57 63 69 69 69 68 66 60 60 62 62 62 61 63

GFSCGP_925_rhum_045.txt.gz
RH
41 41 41 36 34 32 31 30 32 29 23 35 38 32 33 51 65 79 81 79 83 80 73 75 81 80 77 79 73 76 75 68 69 86 88 83 74 64 62 65 70 74 71 66
42 43 38 35 36 30 31 30 29 28 24 38 36 36 27 48 57 64 73 70 67 72 74 71 73 74 75 74 70 71 67 71 79 78 81 77 67 64 66 71 75 74 64 60
43 32 33 34 32 30 30 32 32 31 26 28 31 35 25 28 33 56 59 57 55 63 68 70 65 70 71 73 70 65 67 71 77 77 77 72 72 70 75 71 69 63 62 63
39 32 36 34 35 32 34 28 32 34 32 35 27 44 31 30 32 50 54 54 50 56 58 61 60 65 71 71 68 66 67 72 76 76 76 68 68 76 71 64 61 64 65 62
35 40 38 36 33 30 33 25 31 30 34 33 32 34 31 29 34 40 47 48 45 48 53 56 57 60 66 71 74 79 84 84 80 78 75 71 72 70 65 66 63 67 63 63
31 36 33 30 28 30 26 28 39 46 45 47 34 38 39 34 27 26 34 45 42 47 49 51 53 59 65 74 83 84 85 82 81 78 71 67 76 72 70 67 67 67 64 62
33 34 33 34 32 29 30 40 55 57 66 54 40 45 39 28 28 27 31 39 45 50 61 69 78 68 75 89 92 90 90 90 82 77 71 72 80 76 69 62 66 66 64 61
43 43 35 30 31 35 34 38 59 44 66 50 46 52 37 29 34 28 30 38 50 59 63 76 74 77 88 92 94 95 97 92 87 85 79 76 81 77 70 63 65 66 63 53
46 42 39 36 34 29 36 42 35 65 69 78 53 44 32 30 41 47 45 44 54 62 63 73 80 86 91 90 94 93 97 94 90 88 80 80 83 80 71 69 71 74 52 50
37 37 39 39 33 31 32 30 39 56 45 53 50 41 45 32 28 42 50 52 68 76 82 83 85 88 92 94 92 97 93 92 89 83 83 80 84 75 68 70 73 51 51 68
43 35 38 38 42 36 35 36 36 43 57 58 67 48 30 34 31 37 42 50 73 81 87 83 81 83 86 90 93 93 92 92 84 80 72 69 69 65 62 60 49 48 62 63
43 46 50 40 34 34 32 37 38 63 42 63 77 51 26 28 36 42 44 53 66 71 74 78 78 82 84 81 80 82 84 82 78 69 63 62 59 56 54 52 53 56 51 49
47 50 54 43 37 38 36 38 44 52 60 59 69 52 26 25 21 32 47 51 60 67 65 70 79 81 78 78 78 76 78 80 78 72 61 59 58 56 54 50 48 49 58 59
44 53 46 49 40 39 39 35 38 46 73 54 58 39 29 27 26 24 32 36 52 64 67 68 69 76 73 74 75 73 78 80 76 69 67 66 60 54 52 48 50 57 52 49
39 42 40 38 30 33 33 34 44 40 41 49 41 47 34 26 25 27 26 33 47 56 61 64 63 65 66 71 73 74 72 76 69 65 65 60 53 52 55 54 54 52 51 51
43 47 34 42 40 38 35 34 38 39 34 40 38 36 32 31 32 38 39 40 43 48 56 51 60 60 66 68 74 75 72 70 67 68 63 58 54 53 54 56 57 58 63 69
46 60 60 46 49 42 59 44 37 34 35 35 39 35 32 39 42 44 46 44 46 50 60 66 76 75 76 78 80 77 74 74 71 66 65 58 56 58 65 67 67 75 84 87
61 62 72 72 62 66 39 35 33 37 37 36 38 39 43 52 56 59 56 52 65 66 64 66 72 75 78 80 76 72 69 68 66 64 62 64 68 71 75 84 87 90 88 86
58 75 80 71 74 53 38 37 38 35 36 36 45 53 56 57 55 62 64 66 68 69 69 71 70 68 65 66 67 66 68 68 69 75 73 70 76 83 87 92 96 91 77 59
63 73 75 83 70 70 52 36 30 37 56 39 48 52 56 52 67 71 69 70 72 72 71 75 72 68 67 69 69 72 76 69 65 66 77 86 96 97 93 89 69 61 60 55
85 85 82 95 78 68 46 34 32 39 45 50 52 54 56 58 68 76 73 74 72 70 68 65 66 68 66 61 57 65 72 78 81 84 86 85 71 67 66 64 62 59 58 58
70 87 87 90 75 62 42 37 37 46 54 55 56 66 76 77 76 76 74 74 70 68 64 62 64 64 61 60 64 74 80 82 73 64 61 61 60 57 55 57 58 60 60 62
55 66 76 68 68 50 55 42 51 55 57 62 72 74 70 77 80 79 82 76 70 62 56 59 60 61 58 59 59 60 62 60 58 56 55 53 54 54 56 58 58 61 59 62
56 62 69 65 63 76 78 70 69 65 73 76 76 66 68 81 80 80 76 74 71 66 63 62 62 64 61 56 58 61 61 60 58 58 59 62 64 63 64 64 59 58 57 59
66 63 80 88 77 72 74 72 72 73 72 72 71 71 75 76 77 76 77 76 74 72 69 66 66 66 67 66 67 66 67 66 70 75 79 80 80 80 79 78 81 80 76 77
63 68 79 84 75 70 78 75 72 73 77 75 77 79 73 72 78 79 86 82 76 75 68 67 68 67 71 80 87 84 84 81 77 73 69 69 67 65 70 80 81 79 81 80

GFSCGP_925_rhum_048.txt.gz
RH
42 41 42 38 36 32 31 32 31 30 26 39 43 39 45 64 76 88 96 94 94 93 81 82 80 79 76 73 73 78 81 86 74 66 73 86 98 100 96 79 66 70 73 68
43 46 37 34 38 37 32 33 34 28 27 34 40 40 30 55 72 74 90 94 92 90 90 86 85 83 80 71 71 76 79 79 73 62 70 88 95 94 82 71 70 75 74 71
44 32 37 38 33 32 31 32 30 30 31 32 30 36 30 33 52 62 70 75 75 82 86 84 85 88 81 78 71 74 76 75 72 67 78 89 90 86 81 78 74 75 74 68
41 34 36 37 36 33 35 28 29 32 35 42 29 42 30 31 46 53 61 75 71 70 74 76 78 82 82 78 74 76 76 79 79 73 82 87 81 81 78 66 66 77 70 67
36 38 41 39 35 33 34 27 30 32 39 36 34 37 31 31 33 38 52 62 64 60 65 73 75 72 76 78 76 78 78 79 80 80 87 85 79 80 72 71 71 69 69 70
32 36 35 34 30 31 27 31 40 50 46 49 36 39 42 34 30 30 34 54 58 56 59 62 67 66 68 72 76 77 81 84 82 89 89 83 80 77 76 75 69 70 72 69
35 36 34 36 34 31 32 41 55 57 66 55 43 50 47 31 29 29 34 43 49 51 58 64 71 67 68 71 77 80 82 87 81 86 86 83 82 83 80 77 72 72 72 70
46 42 36 34 33 37 35 40 61 44 64 47 45 52 35 29 37 44 35 30 52 54 54 63 62 64 70 79 83 83 85 88 87 81 81 88 86 87 85 82 69 69 69 66
49 40 36 36 34 30 38 44 38 67 70 79 53 42 28 31 34 45 43 47 58 60 58 58 69 67 73 84 86 79 86 91 87 83 78 89 92 88 88 88 73 73 69 62
36 35 40 36 34 32 32 37 44 57 51 52 48 44 41 33 31 46 44 43 53 66 70 69 84 82 82 84 86 76 79 81 83 91 91 92 91 91 92 89 80 74 68 67
41 32 33 39 40 39 41 41 43 46 57 55 66 49 34 29 32 33 41 46 54 77 80 84 89 88 86 86 83 78 89 92 94 91 92 94 95 95 93 89 80 77 73 66
40 43 43 38 34 33 34 40 44 64 45 66 76 54 29 28 31 36 38 44 57 73 82 85 86 89 92 85 86 89 97 97 91 89 94 97 96 92 87 87 86 82 74 68
45 45 46 40 38 39 39 41 45 55 62 62 71 51 28 30 26 26 35 43 56 69 72 80 87 91 93 95 99 98 92 91 92 94 94 88 87 86 82 79 75 66 64 68
39 52 42 41 38 41 45 41 50 51 74 59 60 42 32 30 30 28 27 31 44 64 71 76 80 85 84 85 88 90 93 97 96 92 88 86 82 77 71 64 59 61 59 65
41 43 45 38 32 38 37 40 49 46 46 51 44 49 38 33 30 31 30 40 44 57 65 70 70 76 81 85 85 85 87 91 91 89 86 80 77 70 62 60 57 61 68 66
47 45 35 43 41 39 39 37 48 42 39 42 40 40 35 32 37 44 45 51 59 66 72 82 74 66 75 80 85 86 85 84 83 81 80 73 64 62 59 62 64 61 62 69
49 59 59 48 49 42 60 45 42 40 40 40 48 40 38 40 44 46 51 56 68 74 76 80 84 90 96 92 87 89 87 83 80 75 72 67 68 64 60 62 74 81 85 84
62 58 68 73 63 60 39 39 36 42 39 36 37 38 41 49 71 72 74 69 70 71 73 76 80 82 84 84 83 83 80 77 74 75 73 66 66 77 83 84 86 91 93 94
62 71 78 70 73 51 38 38 41 38 36 41 43 59 63 68 63 73 72 74 78 79 79 78 74 74 75 76 76 74 75 75 73 72 72 80 86 89 89 90 94 94 86 79
62 69 67 81 68 66 49 38 34 32 47 45 56 65 65 64 51 70 75 76 75 74 76 74 73 74 74 76 72 70 71 70 75 80 83 88 95 92 80 80 81 66 66 63
84 84 75 93 77 71 52 35 32 42 48 50 54 59 64 56 63 83 78 78 72 70 71 70 72 75 72 70 71 80 81 87 93 94 83 72 63 64 64 64 63 59 60 62
73 84 87 86 81 73 44 38 42 45 51 56 58 62 71 86 83 81 77 74 71 71 70 68 69 70 72 74 77 83 81 71 62 60 58 58 56 56 58 60 59 59 59 60
64 66 74 69 71 53 50 40 41 52 58 59 66 71 76 83 83 79 77 70 66 66 65 66 68 67 64 64 64 69 69 61 58 57 62 67 68 70 72 74 75 76 74 76
58 60 66 62 60 68 73 70 65 61 63 74 71 72 73 83 82 82 75 71 68 68 69 66 67 72 76 70 70 72 68 67 67 75 77 73 69 64 58 52 51 59 65 79
66 64 76 73 79 75 74 73 72 79 79 74 76 76 79 80 81 77 78 76 75 74 70 68 74 80 93 86 86 81 76 69 68 64 63 57 51 52 55 58 71 76 73 80
71 69 74 65 65 58 62 77 78 79 81 77 79 82 78 75 78 78 84 80 78 74 72 75 84 95 92 78 75 72 66 60 56 62 66 66 60 62 72 91 89 82 83 87

GFSCGP_925_rhum_051.txt.gz
RH
41 35 35 34 35 31 30 32 28 27 30 29 35 38 36 75 76 79 76 76 79 76 72 71 72 79 78 80 85 89 96 91 91 90 82 78 74 72 78 89 93 85 76 72
40 43 35 34 37 36 34 33 32 28 27 32 31 29 32 63 70 68 72 71 71 70 72 74 75 75 76 75 80 83 89 92 88 91 71 78 74 75 91 100 94 87 78 71
41 32 37 37 35 36 32 33 31 30 28 31 30 28 32 36 56 66 64 65 64 67 71 73 79 81 78 76 77 80 81 85 87 89 77 69 82 94 100 97 86 82 78 72
39 36 38 40 38 33 36 30 31 31 30 31 28 32 29 30 40 53 61 63 67 66 70 68 74 81 84 81 79 76 84 81 83 85 85 79 85 91 99 98 82 76 77 75
36 41 42 40 37 33 32 30 32 32 34 35 33 31 27 30 30 34 45 56 56 56 61 65 70 70 78 84 85 76 78 79 85 87 86 81 92 92 88 88 79 82 79 74
33 35 35 33 32 33 31 34 38 42 40 45 35 32 30 26 25 25 25 36 50 53 56 58 62 70 73 85 84 80 82 86 90 90 94 87 88 89 88 84 84 86 78 74
37 36 35 34 34 32 32 35 44 46 50 47 43 43 34 28 27 27 30 28 38 51 52 55 59 66 68 81 86 86 87 88 88 92 91 85 81 93 84 82 78 77 78 78
35 36 36 36 33 34 38 35 50 46 49 40 43 40 23 28 27 37 39 36 32 50 52 52 54 61 65 74 82 86 85 85 93 92 86 79 84 98 92 84 82 77 75 75
48 38 33 37 34 30 38 41 37 56 67 61 40 34 24 27 29 38 39 36 35 42 48 49 52 60 65 71 80 84 84 86 93 94 94 87 93 98 100 94 90 85 80 80
39 37 41 37 35 37 35 35 44 50 53 53 39 40 26 26 30 31 38 39 38 44 51 50 54 61 66 70 79 87 85 83 89 95 95 96 97 97 100 97 94 93 87 80
38 33 36 40 39 36 40 40 45 40 46 44 49 36 32 25 28 32 36 39 41 48 52 56 57 64 68 75 81 85 83 82 88 93 98 98 94 98 100 100 100 99 90 83
39 45 50 38 35 33 36 40 40 53 46 58 56 42 26 29 26 30 33 37 42 53 56 61 64 73 78 79 80 80 84 88 93 88 86 95 100 100 100 100 100 99 91 83
43 43 42 34 35 40 40 40 41 48 55 56 66 41 26 28 27 26 28 32 43 53 60 63 69 74 81 86 90 93 95 93 98 97 100 100 100 100 100 100 99 94 89 81
37 46 41 38 32 38 48 44 44 44 58 51 48 38 30 28 29 26 28 28 29 43 57 62 66 71 79 84 88 94 100 100 100 100 100 100 100 99 97 94 91 89 84 76
41 43 45 37 31 37 38 39 47 42 43 48 39 42 31 30 28 28 32 43 47 59 62 63 62 68 76 83 90 95 96 98 99 99 97 97 94 87 79 74 71 72 71 74
48 44 48 44 41 39 40 38 42 43 40 42 38 40 31 30 32 38 46 55 59 67 70 74 72 68 79 86 90 96 95 96 95 94 93 84 77 72 68 69 71 70 68 81
53 59 56 49 48 42 58 46 43 43 41 38 46 38 35 35 38 44 52 58 64 69 73 78 80 82 88 92 93 92 91 88 84 82 81 75 68 66 65 68 76 87 87 82
59 58 62 68 62 64 37 39 36 39 38 36 36 33 34 37 56 59 60 56 63 67 71 72 75 79 83 84 85 83 80 80 77 75 75 74 74 83 86 89 93 92 94 96
53 65 71 74 60 48 36 36 39 39 28 34 34 35 47 57 55 62 65 64 67 69 69 72 75 77 78 78 78 77 74 70 72 82 85 86 87 90 90 90 88 82 84 92
64 63 64 70 63 64 46 35 36 30 41 36 37 49 57 56 52 50 66 66 69 68 69 72 76 76 76 75 72 70 71 75 80 89 98 95 86 77 71 66 70 68 71 69
74 72 67 75 72 59 45 36 35 45 38 42 43 50 56 50 51 63 67 67 66 67 71 73 72 73 75 76 76 78 84 94 93 80 73 65 61 58 60 61 62 65 71 67
68 74 80 75 77 59 44 38 42 42 43 47 50 55 60 72 74 70 66 66 64 66 67 69 73 77 82 81 75 71 72 72 70 66 61 64 65 66 68 71 76 76 79 80
72 61 65 58 60 52 44 40 41 44 43 53 53 59 68 74 71 68 68 65 62 62 66 68 70 71 72 70 66 67 73 66 65 69 78 77 69 63 60 61 60 56 58 62
66 65 61 56 52 52 55 56 60 53 50 53 51 59 65 70 69 67 63 62 61 63 64 66 68 72 80 82 85 85 77 74 72 74 72 66 60 55 56 56 60 60 67 68
66 66 66 64 59 70 63 65 59 63 69 65 60 63 65 68 67 62 62 62 63 64 66 67 74 82 90 86 80 71 66 66 67 67 62 59 60 62 60 64 70 71 74 82
64 63 68 66 48 50 43 55 68 72 68 65 69 73 67 63 65 62 64 67 66 68 71 78 85 84 84 85 82 77 68 56 55 55 58 69 70 72 71 67 64 79 85 87

GFSCGP_925_rhum_054.txt.gz
RH
25 23 23 17 20 21 20 20 18 19 22 22 21 20 18 37 48 43 46 56 67 55 55 57 60 61 61 61 65 65 67 72 78 75 69 66 63 66 74 81 91 95 90 99
29 26 21 23 25 28 24 22 19 20 22 24 18 18 20 30 42 44 41 44 47 51 53 52 56 55 56 58 64 64 63 69 73 68 66 59 55 60 72 88 90 97 96 88
23 22 26 26 26 29 26 23 21 20 20 19 20 18 21 25 35 38 40 36 37 42 50 51 49 55 59 56 63 66 66 68 72 68 67 64 66 72 83 96 98 96 99 90
22 20 27 26 27 23 25 21 23 23 23 24 20 26 18 20 28 35 37 41 38 35 40 47 52 52 54 55 55 56 56 61 69 73 64 59 56 59 68 84 100 99 92 89
25 27 29 30 26 24 24 24 25 24 23 25 22 23 17 20 19 20 27 33 37 37 36 41 47 52 56 56 57 57 57 59 64 71 74 68 61 52 59 94 99 100 93 90
19 24 24 21 24 24 24 26 27 28 25 33 23 23 19 16 16 16 16 21 29 33 36 34 39 48 53 58 61 64 62 60 66 73 79 76 70 66 70 86 92 94 89 90
23 24 22 24 25 26 26 28 36 40 38 38 28 27 19 15 17 18 20 20 18 27 34 37 36 42 48 54 65 71 70 64 67 72 77 81 82 80 79 79 86 88 89 92
28 29 24 23 23 24 26 26 35 44 42 32 30 29 18 19 18 18 24 24 23 21 27 32 35 38 44 50 64 72 70 67 66 73 79 83 88 89 86 85 89 90 93 90
26 22 22 25 24 23 30 32 24 36 50 44 25 20 15 17 19 20 22 26 22 22 26 28 29 35 40 47 59 66 65 63 62 76 80 88 94 96 93 92 98 99 88 92
23 26 26 30 27 28 26 23 34 32 45 42 26 24 16 18 16 17 17 18 25 26 26 28 30 34 40 46 52 64 68 65 66 75 83 90 94 96 95 95 100 99 90 94
19 22 35 33 33 26 32 31 30 27 31 36 34 25 17 16 16 18 22 23 24 30 30 33 32 36 42 47 52 61 65 62 64 68 77 85 86 90 97 99 100 99 99 97
20 24 30 27 27 26 23 26 28 38 39 37 42 31 14 16 18 19 21 22 26 31 35 36 39 44 46 50 52 57 60 60 61 69 75 83 97 99 100 100 100 100 100 98
26 27 33 30 30 29 27 25 24 26 33 31 50 31 18 19 20 18 19 21 25 33 34 37 41 44 49 53 56 58 65 66 69 74 84 98 99 100 100 99 99 100 100 98
30 22 26 31 22 19 30 26 24 28 37 29 30 23 18 18 18 17 19 20 20 28 37 37 42 45 52 58 63 67 84 94 95 96 100 99 100 100 100 100 100 100 98 98
26 28 25 20 17 16 17 18 22 26 26 27 25 22 20 17 18 18 21 24 26 28 37 43 44 48 55 65 74 78 89 96 99 99 100 100 98 94 93 92 91 95 94 89
30 28 30 29 22 22 22 19 18 21 20 24 24 24 19 19 20 22 25 31 36 43 48 49 49 53 63 68 73 80 83 86 89 92 89 88 84 83 82 82 82 84 84 82
40 32 36 34 30 30 50 34 24 22 26 26 26 22 18 22 23 23 30 36 43 50 54 56 57 60 65 71 74 75 76 77 76 78 77 74 73 75 75 77 80 84 84 83
45 42 40 42 64 78 24 24 21 23 22 21 22 21 19 19 24 33 36 42 49 52 55 56 59 64 67 69 70 70 69 69 69 68 69 71 74 75 82 93 97 93 91 91
42 43 52 74 48 30 31 30 29 30 25 19 21 19 18 31 37 44 44 42 48 51 52 55 59 62 64 65 65 63 63 64 67 70 72 76 80 86 87 86 90 94 84 73
49 49 52 59 52 74 27 21 22 24 33 17 18 21 23 36 40 26 47 50 52 52 56 59 61 62 63 63 61 61 63 65 70 75 78 78 79 83 80 74 68 65 60 56
67 64 70 59 63 38 27 24 24 36 32 21 20 22 32 38 29 40 47 51 49 53 57 60 57 58 60 61 62 64 69 75 74 70 69 69 66 64 61 59 58 56 55 61
57 64 80 58 83 70 30 29 29 24 29 25 30 28 36 38 49 49 49 49 50 53 58 58 60 62 64 65 66 64 63 63 64 64 62 60 59 56 57 57 56 51 48 47
60 47 48 46 39 31 32 23 24 28 23 32 30 32 36 51 50 49 50 50 49 51 54 58 61 61 58 57 56 55 58 59 60 58 58 58 54 48 43 39 38 34 40 45
49 52 58 52 30 34 34 26 31 29 28 29 29 35 45 47 49 50 50 49 47 50 52 55 58 58 59 57 57 59 59 57 56 54 51 45 39 36 36 36 36 38 50 51
35 51 48 46 39 39 41 36 29 36 39 39 33 39 42 45 48 49 49 48 47 49 54 54 58 62 62 62 63 61 57 52 47 43 38 38 42 39 38 40 49 52 59 68
43 44 60 53 34 44 27 32 35 38 43 40 41 45 43 43 47 46 48 48 49 52 54 58 60 60 61 62 61 55 47 42 37 35 39 51 49 50 43 40 42 60 58 65

GFSCGP_925_rhum_057.txt.gz
RH
19 20 19 14 13 14 15 15 15 28 32 21 18 16 16 23 28 30 35 40 42 47 44 53 50 46 44 50 55 59 63 61 57 58 57 56 53 53 54 55 67 92 84 82
20 24 15 15 17 18 16 17 15 13 15 17 16 17 20 18 27 27 31 42 43 38 44 46 49 50 48 48 51 54 54 52 52 48 48 46 47 48 57 61 65 87 92 81
22 17 16 19 19 21 19 19 16 16 17 16 16 17 19 14 22 25 26 29 33 42 43 44 46 47 49 50 50 48 51 52 52 48 47 46 45 43 47 53 63 94 100 84
19 15 19 20 21 19 22 15 16 19 18 20 21 25 25 16 19 25 26 26 28 30 38 41 44 45 48 49 52 52 51 50 51 52 48 47 46 44 45 55 62 91 91 74
19 17 22 23 20 18 19 19 19 18 19 19 21 19 20 14 14 16 21 24 24 26 31 36 38 41 45 46 49 53 53 51 49 51 52 50 51 46 45 53 62 91 99 97
16 14 16 17 17 19 16 21 21 21 22 29 20 23 27 24 13 13 13 19 22 24 24 28 34 38 40 44 49 52 52 49 47 49 54 56 53 55 46 46 86 92 96 97
19 19 17 17 21 20 21 23 35 44 33 33 20 21 18 22 12 12 13 13 17 21 25 25 28 35 38 42 47 50 51 49 48 50 54 59 61 62 61 57 74 77 85 88
24 24 19 18 19 20 24 22 35 51 46 33 25 24 17 13 12 12 12 15 17 16 21 25 25 29 35 41 47 52 51 52 49 54 58 63 67 70 72 72 69 74 78 85
21 21 13 14 15 15 20 28 19 30 34 39 23 17 14 12 14 14 14 16 17 18 17 21 24 26 30 37 44 52 54 54 53 56 63 71 79 76 82 83 79 82 85 92
16 23 15 16 16 17 20 21 30 29 51 48 23 20 18 15 14 13 13 14 19 19 18 19 20 25 28 33 40 50 58 56 57 63 68 73 77 86 88 89 88 90 92 99
16 20 22 23 26 22 25 28 25 23 27 47 38 21 15 14 13 13 13 14 15 20 22 22 22 22 26 30 37 49 55 55 57 58 65 74 85 91 92 96 96 94 100 99
17 20 29 28 17 15 20 23 24 35 36 33 33 33 14 13 13 14 14 14 17 20 22 25 26 27 29 35 38 44 52 54 52 55 63 77 84 90 97 99 100 100 100 100
19 22 31 26 23 21 22 23 22 24 26 44 66 33 14 13 14 13 14 14 17 20 23 28 33 34 35 38 40 45 50 50 51 55 82 96 95 93 97 100 100 100 100 100
26 21 27 32 23 20 24 21 20 23 38 32 27 21 17 14 15 14 14 15 15 20 23 21 26 32 38 43 47 52 64 67 67 86 94 97 99 99 99 100 99 99 100 100
24 27 22 19 17 15 16 19 19 21 21 28 23 20 16 14 14 13 13 16 16 16 21 23 26 32 42 49 56 79 89 90 93 98 100 100 99 99 99 99 100 99 99 97
23 31 24 23 18 17 17 14 14 14 15 16 17 17 13 12 12 16 17 17 19 19 21 28 31 39 49 58 62 75 84 89 94 93 89 88 84 83 84 86 87 85 89 91
28 32 30 37 21 20 34 20 16 15 15 16 21 17 13 14 14 16 16 20 22 29 32 36 40 48 56 62 67 70 75 80 78 76 75 72 72 75 74 72 73 75 79 83
40 35 35 48 61 63 25 16 16 18 16 14 15 14 14 13 12 17 18 21 31 36 41 45 48 53 57 58 60 63 63 65 66 65 65 68 68 69 72 76 79 84 88 90
35 44 51 61 47 30 20 22 21 20 19 14 15 15 14 14 22 29 27 27 35 40 42 45 48 51 54 55 55 56 57 60 61 62 64 68 74 78 76 77 79 82 84 79
37 40 59 56 54 57 27 19 16 16 32 16 14 15 15 21 33 20 32 35 39 40 42 46 49 50 51 52 52 54 56 57 60 64 69 72 70 71 72 72 67 61 55 49
70 64 77 65 56 34 19 17 15 37 34 16 14 15 16 22 22 30 34 40 39 40 43 47 47 48 50 51 52 53 58 64 68 67 67 68 64 62 60 56 50 46 46 51
69 65 82 64 67 68 25 23 28 24 21 18 18 17 20 23 36 38 39 38 38 40 47 45 47 49 52 53 54 59 60 60 60 60 58 56 52 46 48 48 46 41 39 42
50 44 53 42 40 28 28 27 21 19 19 21 21 19 22 35 38 39 39 39 40 42 43 46 49 53 55 55 54 52 54 55 56 54 52 48 43 38 35 33 34 29 35 42
34 33 43 38 32 29 26 26 26 23 22 21 22 21 25 38 37 39 39 40 41 40 43 47 52 51 50 49 48 51 53 53 50 47 44 38 34 31 29 28 29 34 46 47
34 34 38 34 25 25 25 30 32 26 24 25 24 23 28 35 37 38 40 40 37 40 44 48 47 48 48 49 51 51 49 45 41 37 33 33 33 30 32 35 40 47 68 56
22 26 43 43 24 39 34 29 30 28 27 30 28 28 32 32 36 37 39 39 38 40 45 47 50 52 54 53 50 48 44 37 33 33 35 44 45 41 31 31 53 51 48 46

GFSCGP_925_rhum_063.txt.gz
RH
24 30 33 30 27 24 24 22 22 26 27 35 39 37 59 64 73 72 72 62 69 72 70 76 84 86 93 93 93 90 93 92 89 80 77 73 70 60 52 55 55 59 63 67
30 33 25 21 21 22 22 23 22 22 25 25 28 30 42 62 64 58 55 64 66 65 71 75 78 81 87 87 92 92 94 89 82 81 73 69 66 62 51 52 59 57 67 69
33 27 22 23 22 23 23 23 24 23 24 22 27 30 45 46 42 45 42 47 52 58 64 74 70 74 82 86 86 87 84 84 79 68 68 72 70 72 70 64 58 58 56 63
31 24 24 23 25 21 26 20 21 22 26 36 22 41 25 35 39 39 42 47 51 60 54 62 62 68 78 79 76 76 79 80 75 72 75 76 75 69 65 54 53 52 60 64
30 27 27 27 23 20 23 23 22 25 31 30 28 42 36 27 28 32 47 45 50 56 56 52 56 59 65 69 72 72 73 74 70 77 75 72 66 58 56 54 55 57 60 65
25 19 21 22 18 20 19 23 25 25 32 46 31 38 39 32 26 24 33 46 45 52 57 53 49 55 60 61 64 66 67 66 67 69 67 68 59 57 57 55 56 54 59 64
28 25 20 18 21 21 23 28 52 65 66 62 35 44 29 30 26 26 32 51 58 50 52 57 54 52 54 60 62 64 66 66 64 66 64 62 59 55 52 50 55 64 75 80
39 42 24 18 20 25 28 32 62 57 80 67 40 53 29 28 23 24 20 29 51 47 46 52 53 53 53 55 61 63 62 62 62 61 59 57 55 59 54 52 51 52 57 62
37 34 19 18 18 20 29 35 29 44 55 72 57 35 32 26 26 19 16 16 37 42 44 47 51 51 52 53 56 62 59 58 57 58 60 61 53 56 56 56 58 58 66 69
30 39 23 20 17 22 22 22 41 49 70 77 51 45 48 37 21 15 17 24 25 30 37 43 46 49 49 51 53 57 59 60 58 58 60 59 62 59 61 63 76 74 87 89
24 33 37 23 26 25 30 28 29 40 49 66 64 54 44 38 29 17 23 21 26 24 26 34 36 44 44 46 52 58 59 58 59 59 58 57 56 53 78 66 71 75 75 100
24 34 39 33 23 18 22 26 30 60 52 56 66 55 29 31 26 20 18 21 25 27 28 28 38 37 40 42 46 54 59 58 59 60 61 66 77 67 78 81 92 99 99 99
25 29 46 42 29 23 24 24 27 31 46 57 71 60 30 28 25 22 20 24 26 27 34 34 33 37 42 42 45 50 62 67 71 84 82 81 84 99 100 98 100 100 99 100
28 34 33 44 40 32 32 27 26 34 61 54 61 47 34 33 29 23 18 21 28 27 36 40 40 40 46 79 78 74 74 70 79 96 98 100 100 100 99 100 100 100 100 100
31 32 31 34 27 29 30 31 27 29 37 53 49 48 38 33 24 22 22 22 25 27 36 43 47 52 86 92 94 99 100 100 100 100 100 100 100 100 100 100 100 99 99 100
37 44 35 37 32 30 31 28 31 28 25 42 44 46 26 24 20 19 22 22 21 22 29 39 47 60 82 90 96 100 100 100 100 100 100 100 100 100 99 98 98 97 97 97
72 53 52 50 36 34 49 36 29 29 27 28 45 34 24 21 19 21 23 24 24 22 22 38 49 71 82 89 92 97 98 99 100 99 100 100 98 94 94 95 94 94 95 93
86 51 64 76 58 62 34 25 25 28 24 21 18 17 18 17 18 20 21 26 26 30 34 65 63 82 86 88 90 90 89 89 90 92 93 95 92 88 88 92 92 94 90 86
82 73 87 73 61 44 36 27 28 31 31 20 19 18 18 16 28 27 28 28 39 41 55 80 75 81 87 88 87 85 84 82 82 82 86 87 84 84 88 87 88 87 85 83
89 75 87 95 81 69 45 34 29 26 40 24 22 24 24 25 40 37 35 46 52 57 64 68 71 75 82 83 81 82 81 77 76 77 77 77 79 82 86 81 82 80 80 84
98 94 99 98 99 84 46 30 28 46 45 27 26 25 25 33 39 36 50 51 54 56 60 61 65 71 72 74 73 71 70 71 72 74 77 75 78 80 78 76 77 80 70 58
82 93 99 99 97 95 46 40 38 39 38 33 30 27 28 42 45 46 51 52 53 58 61 59 62 63 62 63 64 67 68 69 74 75 77 77 74 74 76 66 54 54 53 58
83 71 81 70 81 59 49 45 43 48 44 41 38 28 47 51 46 50 54 56 54 57 58 55 59 59 58 60 62 67 70 72 72 73 72 68 65 61 54 47 50 51 52 52
44 48 63 65 55 51 45 50 56 57 56 46 32 38 41 51 49 52 56 55 54 57 56 52 56 61 61 57 63 67 68 70 69 65 60 53 54 51 45 38 40 44 49 50
52 50 58 67 51 47 43 41 52 50 53 46 40 29 38 54 53 50 54 54 51 54 51 54 59 62 62 62 63 64 64 62 59 52 46 39 34 34 37 45 47 48 50 47
40 40 73 85 62 53 43 35 44 55 48 42 48 44 32 50 51 52 55 55 55 54 51 58 59 59 60 60 59 60 59 56 51 45 38 32 35 36 41 52 54 36 31 34

GFSCGP_925_rhum_066.txt.gz
RH
26 30 31 34 33 28 29 32 33 27 30 36 41 48 56 64 65 65 65 77 90 90 83 88 94 97 99 100 100 97 84 81 74 79 83 71 53 46 44 53 61 66 61 64
32 35 26 27 29 31 30 30 30 24 24 34 31 33 39 61 62 66 67 75 88 84 86 86 93 97 98 99 100 99 92 81 77 74 72 69 55 50 45 45 57 61 65 59
39 31 25 27 28 30 29 30 30 26 22 26 28 32 52 54 58 59 59 62 74 80 88 85 88 94 99 98 99 96 92 81 74 66 64 66 58 50 51 51 45 52 62 62
39 28 29 30 29 28 35 25 25 27 31 39 26 42 39 54 53 52 52 67 68 74 77 80 83 89 95 94 95 97 95 92 85 80 79 75 72 70 60 56 54 48 57 64
42 34 33 32 30 26 30 26 26 26 31 32 32 38 35 39 46 50 51 54 64 67 72 80 78 81 88 87 91 94 93 91 86 83 77 72 71 70 67 66 57 48 51 61
33 26 27 28 26 26 23 24 28 33 38 51 37 40 39 34 30 34 45 47 58 63 67 70 70 74 82 86 87 88 88 85 83 79 72 68 74 77 78 71 69 68 58 54
31 30 25 23 28 25 27 32 50 59 57 59 35 47 46 30 26 30 47 48 49 61 59 70 69 70 76 78 78 79 79 78 77 76 74 74 76 74 75 71 66 65 62 67
38 48 30 25 27 29 32 35 60 56 71 57 47 55 41 27 28 27 42 45 48 60 58 58 62 63 67 68 70 70 70 71 71 73 72 77 78 80 73 69 66 65 62 60
46 42 25 24 22 23 31 41 32 50 59 71 56 44 32 30 25 24 40 45 49 54 61 58 54 60 61 61 64 68 66 65 65 67 70 73 76 76 76 72 68 65 66 68
34 44 29 24 22 23 25 28 43 57 63 70 58 52 50 31 23 20 24 42 43 54 49 57 57 54 56 60 61 64 65 64 59 61 65 68 69 69 71 76 75 74 72 81
28 38 38 29 29 29 31 34 33 44 61 73 73 57 44 38 24 27 23 34 40 51 51 48 54 54 54 54 63 66 67 65 64 64 64 62 64 68 71 77 89 94 95 76
29 36 43 34 28 22 23 30 36 52 56 65 72 52 31 39 34 25 25 26 34 41 45 45 47 51 54 56 56 60 69 70 67 66 64 66 69 74 82 94 92 86 80 95
36 42 51 40 34 27 31 29 28 39 52 52 72 59 32 35 32 29 24 24 29 33 37 41 45 46 51 53 54 56 64 70 70 75 76 71 74 79 94 97 87 75 73 93
53 49 39 45 35 34 33 31 27 31 66 50 64 43 36 36 32 31 28 24 31 33 37 43 49 59 66 51 50 55 68 68 70 71 68 84 86 81 83 97 94 94 96 99
68 59 40 32 28 29 33 34 29 33 39 55 48 54 41 38 32 33 30 24 30 32 41 44 58 92 95 91 73 65 72 71 72 76 81 95 85 97 100 100 100 100 100 100
76 82 47 46 35 27 29 28 34 34 33 38 39 42 31 27 30 32 26 24 23 29 35 45 59 91 93 99 100 100 95 93 94 99 100 100 99 100 100 100 100 100 100 100
85 92 92 72 43 34 50 40 37 34 33 39 54 44 31 28 33 31 24 24 25 26 32 50 61 84 90 97 100 100 99 99 100 100 100 100 100 100 100 100 100 100 100 99
83 89 97 96 59 69 41 30 30 34 28 26 29 33 32 29 27 26 23 23 25 27 30 48 58 82 91 97 100 100 100 100 100 100 100 100 100 100 100 100 100 99 99 99
73 89 100 100 70 51 46 33 33 32 35 28 25 22 20 21 25 26 28 28 28 31 44 56 59 90 97 100 98 99 100 100 100 100 100 100 99 99 100 100 99 95 91 93
87 87 87 100 97 71 45 34 28 28 52 28 24 26 26 30 40 39 31 42 49 61 83 89 91 94 97 98 94 94 94 93 94 96 95 93 92 96 96 91 88 86 82 88
98 99 96 98 98 86 62 48 33 49 43 32 30 29 30 35 38 30 45 49 59 72 83 83 88 90 92 92 90 90 88 86 87 90 90 89 91 90 86 85 84 84 92 98
93 95 99 100 99 92 49 47 50 52 42 44 48 44 41 35 42 47 52 59 69 75 80 81 87 89 88 86 84 84 84 82 84 85 87 88 88 88 85 82 88 91 90 87
80 71 89 84 76 57 52 59 65 61 60 58 52 50 50 52 46 56 58 62 66 72 75 75 79 79 79 77 75 78 80 80 81 84 85 84 84 84 78 81 86 76 68 69
50 55 66 67 50 53 49 43 45 55 51 48 53 49 47 49 47 51 61 63 67 71 71 71 73 74 76 70 72 73 78 78 81 82 82 80 78 78 72 74 75 62 65 74
42 47 47 67 56 48 47 49 45 43 40 47 44 45 50 47 55 56 62 62 60 66 65 67 69 71 75 72 74 75 77 77 76 73 68 66 60 56 58 60 62 60 59 55
53 58 78 74 57 57 54 31 35 48 40 37 46 52 50 50 52 55 61 58 60 65 66 70 72 75 76 74 74 74 73 72 68 55 57 55 52 56 55 55 56 58 56 54

GFSCGP_925_rhum_069.txt.gz
RH
31 37 41 33 33 29 30 32 36 31 26 33 44 43 41 57 70 72 75 94 97 96 92 92 97 97 99 100 100 100 100 99 95 89 88 78 71 74 76 73 68 66 62 60
35 39 30 27 31 33 35 37 38 31 26 37 39 42 41 63 66 64 66 78 92 93 98 94 100 100 99 99 100 100 100 96 84 89 86 80 69 60 60 61 71 73 65 62
41 34 28 28 31 32 35 38 37 35 28 36 32 36 34 49 58 65 63 68 86 90 95 95 97 100 100 98 100 100 98 95 88 81 74 73 62 53 53 50 54 62 60 63
40 29 32 32 32 32 36 32 30 32 36 42 30 45 32 43 62 66 61 73 82 85 84 91 94 99 99 98 97 99 94 87 84 80 74 72 68 58 52 47 46 53 57 56
40 40 37 38 33 30 33 32 34 36 37 35 34 42 35 40 53 56 57 58 70 78 82 87 91 94 99 98 95 96 92 87 82 81 77 74 70 64 54 51 51 48 48 48
31 29 34 34 30 30 28 31 31 40 42 53 40 42 43 39 38 39 47 50 59 73 75 78 81 87 94 95 96 98 95 92 84 80 76 73 69 68 66 61 59 54 44 44
30 34 27 26 32 31 33 36 56 60 55 51 38 47 41 32 29 28 34 47 50 62 73 78 83 84 88 94 94 97 99 96 89 85 77 73 72 73 71 68 68 66 59 50
39 46 31 30 31 34 38 39 63 57 67 54 47 63 46 34 33 30 29 36 44 61 68 73 77 77 81 89 90 90 93 93 91 89 86 84 79 75 72 68 64 63 67 52
45 39 28 26 26 28 36 44 32 46 62 74 59 46 34 29 31 30 45 48 51 56 64 68 71 72 75 83 87 86 85 88 86 86 84 83 80 73 76 76 74 74 72 71
37 47 34 28 27 28 31 32 46 59 65 72 58 56 52 36 31 24 35 61 57 52 62 60 66 69 68 73 78 82 79 77 78 79 79 79 79 80 81 79 84 80 77 76
29 41 42 31 37 35 36 35 38 46 64 67 75 62 46 41 38 27 26 48 58 56 61 62 59 59 65 66 69 74 74 70 69 70 72 73 73 74 75 72 79 76 78 82
36 44 45 37 28 26 28 34 39 58 52 70 72 51 34 39 38 36 32 28 39 50 54 56 60 58 60 63 67 70 72 70 66 62 63 64 64 64 68 74 82 78 81 75
54 58 54 46 38 30 34 32 33 45 53 54 66 54 35 37 36 36 33 28 27 36 56 54 51 63 60 59 62 67 72 73 73 70 65 65 62 59 72 83 78 81 84 76
66 62 71 64 45 34 39 32 31 35 56 49 48 42 33 33 35 32 34 32 29 28 39 51 58 58 60 61 60 64 73 75 77 77 77 74 76 87 88 91 81 95 97 87
79 85 73 70 56 40 34 33 32 33 37 46 36 47 37 35 33 32 32 33 30 31 39 47 48 56 56 60 62 63 66 81 81 81 80 80 86 90 90 86 87 100 98 100
78 88 92 83 53 42 39 31 35 36 34 36 37 45 41 35 36 35 35 32 29 29 34 45 52 79 85 75 68 64 70 80 83 86 88 92 100 94 100 94 99 100 100 100
83 90 98 96 76 68 68 44 32 29 36 36 46 41 34 36 36 36 33 34 31 29 28 46 53 76 82 84 79 75 80 84 88 92 100 100 100 100 100 100 100 100 100 100
93 91 95 98 84 96 60 38 32 34 29 34 35 34 34 34 33 30 35 32 32 30 29 36 51 78 82 87 97 98 99 99 100 100 100 100 100 100 100 100 100 100 100 100
79 90 99 97 86 71 48 43 38 40 37 32 34 31 27 26 26 29 29 33 31 30 26 30 40 70 93 99 99 98 100 100 100 100 100 100 100 100 100 100 100 100 100 100
85 81 85 99 97 87 39 45 34 38 54 34 27 31 32 30 39 40 28 34 37 37 58 81 83 94 97 100 100 100 100 100 100 100 100 100 100 100 100 99 99 100 100 100
98 99 97 98 96 85 62 48 50 80 62 42 40 36 32 34 39 30 37 41 50 66 83 88 92 92 96 99 100 99 100 100 100 99 100 100 100 100 100 100 100 100 100 100
92 96 96 98 100 87 59 69 91 68 63 56 54 56 56 54 49 47 49 51 69 83 94 92 94 98 99 97 97 99 98 97 98 99 98 99 99 100 100 100 100 100 100 98
80 76 84 85 77 56 50 71 69 76 72 60 57 54 57 54 49 53 60 63 69 80 92 92 95 99 99 96 93 95 93 91 94 94 96 97 98 99 99 95 95 98 99 100
54 60 70 79 56 57 46 50 57 59 58 53 54 56 50 54 58 56 56 63 68 80 88 87 92 94 93 89 88 86 88 88 91 96 98 95 94 94 93 90 91 95 100 99
59 54 57 54 47 52 53 52 48 48 49 50 52 47 46 45 51 58 60 63 66 75 78 81 85 87 87 82 83 86 87 88 92 89 87 85 86 87 88 87 86 87 90 90
88 92 94 80 79 91 50 48 44 52 50 49 53 47 48 44 46 51 54 63 67 75 76 80 81 84 85 84 88 88 86 83 83 80 79 79 78 78 80 78 78 72 70 72

GFSCGP_925_rhum_072.txt.gz
RH
42 48 50 45 37 30 32 34 36 34 28 27 31 39 35 43 74 76 79 91 99 99 93 95 98 94 100 100 100 100 100 100 99 98 90 100 99 100 100 84 68 49 47 47
39 48 36 35 35 33 33 35 38 34 28 32 33 39 34 50 59 69 66 82 93 96 99 99 100 92 98 99 100 100 100 100 99 97 90 91 94 95 82 74 58 52 48 50
42 37 32 31 36 36 39 36 38 36 33 32 38 43 35 32 56 62 64 66 76 92 98 96 96 93 95 98 99 98 100 99 96 94 91 91 92 87 85 78 69 58 59 49
41 29 33 34 34 32 38 34 33 35 38 48 36 56 35 28 40 61 66 73 76 89 91 96 92 93 94 98 100 99 96 97 88 90 88 85 79 82 74 73 65 59 71 64
44 41 37 41 36 31 31 34 37 36 43 41 38 48 40 35 36 33 49 64 72 85 89 96 96 96 97 96 99 100 95 94 88 84 85 79 71 63 58 57 59 62 61 61
34 34 35 31 29 31 31 34 36 43 50 64 47 46 48 38 34 30 36 49 62 77 87 90 94 99 99 100 97 98 98 95 90 83 76 76 71 66 59 54 52 50 51 52
34 35 30 29 38 36 34 42 59 63 66 65 42 50 37 32 29 31 32 35 52 64 85 92 97 97 100 100 100 100 94 95 90 88 82 74 68 65 65 58 52 50 48 47
40 45 34 33 33 38 44 47 68 60 69 52 50 58 45 37 34 36 32 30 40 63 76 86 89 90 96 100 100 100 100 95 90 84 80 77 76 75 71 65 62 58 54 50
47 42 26 30 31 28 40 50 38 47 61 74 56 46 34 31 31 30 35 39 43 64 80 78 82 84 89 93 95 98 99 98 94 92 88 85 80 77 73 69 63 67 62 58
38 46 35 29 28 29 34 37 49 63 61 69 58 56 46 35 32 36 29 50 54 60 74 77 78 79 82 87 88 90 92 95 94 92 90 88 84 80 75 72 75 75 73 74
34 42 42 34 38 39 39 40 40 49 63 61 62 59 49 36 34 35 31 29 59 64 66 70 71 74 76 82 88 90 90 89 91 91 89 88 85 82 79 78 76 74 75 68
42 47 50 35 31 30 32 38 40 53 52 74 66 46 33 38 38 39 36 34 32 62 64 69 69 72 76 77 86 89 90 86 84 83 82 80 76 73 68 67 68 62 67 69
67 72 69 54 38 34 37 36 37 48 54 48 66 51 36 35 33 35 40 35 32 39 53 66 73 72 71 72 75 80 85 84 80 79 80 82 80 73 76 79 80 82 82 72
63 68 70 83 71 67 62 44 35 38 56 52 47 40 31 31 36 31 30 36 33 30 36 60 68 73 68 68 70 74 79 80 78 77 75 76 79 69 75 74 76 78 80 71
61 82 85 80 72 65 66 60 46 40 38 45 39 39 37 34 30 29 30 33 35 33 32 44 63 62 71 69 68 70 75 79 78 78 76 73 71 69 72 73 78 81 86 74
78 75 90 87 73 66 67 61 47 42 38 38 40 40 32 31 32 34 34 33 36 33 31 35 47 57 68 70 71 69 75 79 80 80 80 77 76 75 77 82 87 99 100 98
79 88 95 84 79 66 71 58 48 46 39 39 44 42 32 36 40 39 37 38 38 36 33 34 39 47 57 60 68 72 72 80 84 84 82 83 84 85 90 94 98 100 100 100
80 86 95 96 84 92 49 55 38 53 47 38 35 36 32 33 33 36 36 35 37 37 34 33 35 48 57 67 66 68 72 78 89 90 89 89 92 98 99 99 100 100 100 99
78 91 99 97 93 67 47 33 44 49 48 35 44 37 33 29 27 29 32 38 37 38 36 36 31 38 55 78 80 84 92 90 92 92 95 99 99 100 100 100 100 100 100 100
80 80 89 100 100 91 44 36 43 39 49 45 56 51 40 34 44 42 30 30 34 40 40 39 41 65 81 89 89 100 100 100 99 100 100 100 100 99 99 99 99 99 100 100
98 99 94 98 96 82 63 64 55 78 55 80 68 64 64 46 40 38 48 46 45 59 60 71 79 86 90 98 97 99 99 100 100 100 100 99 100 100 100 100 100 100 100 100
90 96 97 94 97 94 56 70 72 74 69 69 65 68 68 66 62 56 56 62 64 75 88 92 95 99 100 100 99 99 99 100 99 99 100 100 100 100 100 100 100 100 100 100
84 77 88 85 81 60 52 47 58 69 46 52 63 64 69 62 58 60 63 67 77 85 94 96 98 99 100 100 100 97 100 100 100 100 100 100 100 100 100 100 100 100 100 100
58 66 81 74 44 55 48 51 57 67 65 56 55 63 58 60 58 58 63 64 70 78 88 92 97 99 100 99 98 99 100 100 100 100 100 100 100 100 100 100 100 100 100 99
59 59 64 61 52 69 51 52 59 60 58 63 62 58 56 56 52 52 64 68 68 73 84 89 95 96 96 95 96 96 98 98 99 99 98 100 100 99 99 100 100 100 99 93
90 77 86 78 96 93 90 81 81 81 70 59 63 59 53 58 61 55 47 67 70 79 85 89 91 93 95 95 98 97 95 93 93 92 94 97 97 96 97 97 98 98 99 99